Wetterdaten: aktuell Montag, 19.08.2019 07:55
Datum Zeit Temp. I. Temp 2m Temp 5cm Temp -10cm Feuchte I. Luftf 2m Luftdruck Regen Wind Richtung Richtung Sonnenschein ET UV Solar Taupunkt Windchill Windben Empfang
19.08.2019 07:55 23,9 C 20,8 C 20,6 C 21,7 C 64 % 68 % 1017,0 hPa 0,0 l/m 4,8 km/h (1 Bft) W 270 0 min 0,000 mm 0,0 UV-I 40 W/m 14,7 C 20,8 C 6,4 km/h (2 Bft) 95,65 %
19.08.2019 07:54 23,9 C 20,8 C 20,6 C 21,7 C 64 % 68 % 1017,0 hPa 0,0 l/m 3,2 km/h (1 Bft) W 270 0 min 0,000 mm 0,0 UV-I 39 W/m 14,7 C 20,8 C 6,4 km/h (2 Bft) 95,65 %
19.08.2019 07:53 23,9 C 20,8 C 20,6 C 21,7 C 64 % 68 % 1017,0 hPa 0,0 l/m 1,6 km/h (1 Bft) W 270 0 min 0,000 mm 0,0 UV-I 39 W/m 14,7 C 20,8 C 4,8 km/h (1 Bft) 91,30 %
19.08.2019 07:52 23,9 C 20,8 C 20,6 C 21,7 C 64 % 68 % 1017,0 hPa 0,0 l/m 3,2 km/h (1 Bft) W 270 0 min 0,000 mm 0,0 UV-I 40 W/m 14,7 C 20,8 C 6,4 km/h (2 Bft) 100,00 %
19.08.2019 07:51 23,9 C 20,8 C 20,6 C 21,7 C 64 % 68 % 1017,0 hPa 0,0 l/m 3,2 km/h (1 Bft) W 270 0 min 0,000 mm 0,0 UV-I 40 W/m 14,7 C 20,8 C 6,4 km/h (2 Bft) 91,30 %
19.08.2019 07:50 23,9 C 20,8 C 20,6 C 21,7 C 64 % 68 % 1017,0 hPa 0,0 l/m 4,8 km/h (1 Bft) W 270 0 min 0,000 mm 0,0 UV-I 40 W/m 14,7 C 20,8 C 8,0 km/h (2 Bft) 95,65 %
19.08.2019 07:49 23,9 C 20,8 C 20,6 C 21,7 C 64 % 68 % 1017,0 hPa 0,0 l/m 6,4 km/h (2 Bft) W 270 0 min 0,000 mm 0,0 UV-I 40 W/m 14,7 C 20,8 C 9,7 km/h (2 Bft) 95,65 %
19.08.2019 07:48 23,9 C 20,8 C 20,6 C 21,7 C 64 % 68 % 1017,0 hPa 0,0 l/m 1,6 km/h (1 Bft) W 270 0 min 0,000 mm 0,0 UV-I 40 W/m 14,7 C 20,8 C 9,7 km/h (2 Bft) 95,65 %
19.08.2019 07:47 23,9 C 20,8 C 20,6 C 21,7 C 64 % 68 % 1017,0 hPa 0,0 l/m 3,2 km/h (1 Bft) W 270 0 min 0,000 mm 0,0 UV-I 40 W/m 14,7 C 20,8 C 8,0 km/h (2 Bft) 91,30 %
19.08.2019 07:46 23,9 C 20,8 C 20,6 C 21,7 C 64 % 68 % 1017,0 hPa 0,0 l/m 4,8 km/h (1 Bft) W 270 0 min 0,000 mm 0,0 UV-I 40 W/m 14,7 C 20,8 C 6,4 km/h (2 Bft) 100,00 %
19.08.2019 07:45 23,9 C 20,8 C 20,6 C 21,7 C 64 % 68 % 1017,0 hPa 0,0 l/m 6,4 km/h (2 Bft) W 270 0 min 0,000 mm 0,0 UV-I 40 W/m 14,7 C 20,8 C 8,0 km/h (2 Bft) 91,30 %
19.08.2019 07:44 23,9 C 20,8 C 20,6 C 21,7 C 64 % 68 % 1016,9 hPa 0,0 l/m 4,8 km/h (1 Bft) W 270 0 min 0,000 mm 0,0 UV-I 40 W/m 14,7 C 20,8 C 8,0 km/h (2 Bft) 86,96 %
19.08.2019 07:43 23,9 C 20,8 C 20,6 C 21,7 C 64 % 68 % 1016,9 hPa 0,0 l/m 1,6 km/h (1 Bft) W 270 0 min 0,000 mm 0,0 UV-I 42 W/m 14,7 C 20,8 C 4,8 km/h (1 Bft) 95,65 %
19.08.2019 07:42 23,9 C 20,7 C 20,6 C 21,7 C 64 % 68 % 1016,9 hPa 0,0 l/m 3,2 km/h (1 Bft) W 270 0 min 0,000 mm 0,0 UV-I 46 W/m 14,6 C 20,7 C 6,4 km/h (2 Bft) 91,30 %
19.08.2019 07:41 23,9 C 20,7 C 20,6 C 21,7 C 64 % 68 % 1016,9 hPa 0,0 l/m 1,6 km/h (1 Bft) W 270 0 min 0,000 mm 0,0 UV-I 49 W/m 14,6 C 20,7 C 4,8 km/h (1 Bft) 91,30 %
19.08.2019 07:40 23,9 C 20,7 C 20,6 C 21,7 C 64 % 68 % 1016,9 hPa 0,0 l/m 4,8 km/h (1 Bft) W 270 0 min 0,000 mm 0,0 UV-I 54 W/m 14,6 C 20,7 C 9,7 km/h (2 Bft) 91,30 %
19.08.2019 07:39 23,9 C 20,7 C 20,6 C 21,7 C 64 % 68 % 1016,9 hPa 0,0 l/m 3,2 km/h (1 Bft) W 270 0 min 0,000 mm 0,0 UV-I 60 W/m 14,6 C 20,7 C 6,4 km/h (2 Bft) 95,65 %
19.08.2019 07:38 23,9 C 20,7 C 20,6 C 21,7 C 64 % 68 % 1016,9 hPa 0,0 l/m 6,4 km/h (2 Bft) W-SW 247 0 min 0,000 mm 0,0 UV-I 63 W/m 14,6 C 20,7 C 9,7 km/h (2 Bft) 91,30 %
19.08.2019 07:37 23,9 C 20,7 C 20,6 C 21,7 C 64 % 68 % 1016,9 hPa 0,0 l/m 4,8 km/h (1 Bft) W 270 0 min 0,000 mm 0,0 UV-I 65 W/m 14,6 C 20,7 C 9,7 km/h (2 Bft) 100,00 %
19.08.2019 07:36 23,9 C 20,7 C 20,6 C 21,7 C 64 % 68 % 1016,9 hPa 0,0 l/m 8,0 km/h (2 Bft) W 270 0 min 0,000 mm 0,0 UV-I 65 W/m 14,6 C 20,1 C 11,3 km/h (2 Bft) 91,30 %
19.08.2019 07:35 23,9 C 20,7 C 20,6 C 21,7 C 64 % 68 % 1016,9 hPa 0,0 l/m 3,2 km/h (1 Bft) W-NW 292 0 min 0,000 mm 0,0 UV-I 62 W/m 14,6 C 20,7 C 4,8 km/h (1 Bft) 95,65 %
19.08.2019 07:34 23,9 C 20,7 C 20,6 C 21,7 C 64 % 68 % 1016,9 hPa 0,0 l/m 1,6 km/h (1 Bft) W-NW 292 0 min 0,000 mm 0,0 UV-I 60 W/m 14,6 C 20,7 C 4,8 km/h (1 Bft) 95,65 %
19.08.2019 07:33 23,9 C 20,7 C 20,6 C 21,7 C 64 % 68 % 1016,9 hPa 0,0 l/m 3,2 km/h (1 Bft) W-NW 292 0 min 0,000 mm 0,0 UV-I 60 W/m 14,6 C 20,7 C 4,8 km/h (1 Bft) 95,65 %
19.08.2019 07:32 23,9 C 20,7 C 20,6 C 21,7 C 64 % 68 % 1016,9 hPa 0,0 l/m 3,2 km/h (1 Bft) W-NW 292 0 min 0,000 mm 0,0 UV-I 63 W/m 14,6 C 20,7 C 4,8 km/h (1 Bft) 82,61 %
19.08.2019 07:31 23,9 C 20,7 C 20,6 C 21,7 C 64 % 68 % 1016,9 hPa 0,0 l/m 1,6 km/h (1 Bft) W-NW 292 0 min 0,000 mm 0,0 UV-I 67 W/m 14,6 C 20,7 C 3,2 km/h (1 Bft) 100,00 %
19.08.2019 07:30 23,9 C 20,7 C 20,6 C 21,7 C 64 % 68 % 1016,9 hPa 0,0 l/m 1,6 km/h (1 Bft) W-NW 292 0 min 0,000 mm 0,0 UV-I 65 W/m 14,6 C 20,7 C 4,8 km/h (1 Bft) 91,30 %
19.08.2019 07:29 23,9 C 20,7 C 20,6 C 21,7 C 64 % 68 % 1016,8 hPa 0,0 l/m 1,6 km/h (1 Bft) W-NW 292 0 min 0,000 mm 0,0 UV-I 63 W/m 14,6 C 20,7 C 4,8 km/h (1 Bft) 95,65 %
19.08.2019 07:28 23,9 C 20,7 C 20,6 C 21,7 C 64 % 68 % 1016,8 hPa 0,0 l/m 4,8 km/h (1 Bft) W-NW 292 0 min 0,000 mm 0,0 UV-I 60 W/m 14,6 C 20,7 C 6,4 km/h (2 Bft) 91,30 %
19.08.2019 07:27 23,9 C 20,7 C 20,6 C 21,7 C 64 % 68 % 1016,8 hPa 0,0 l/m 4,8 km/h (1 Bft) W-NW 292 0 min 0,000 mm 2,5 UV-I 56 W/m 14,6 C 20,7 C 6,4 km/h (2 Bft) 95,65 %
19.08.2019 07:26 23,9 C 20,7 C 20,6 C 21,7 C 64 % 68 % 1016,8 hPa 0,0 l/m 6,4 km/h (2 Bft) W-NW 292 0 min 0,000 mm 0,0 UV-I 53 W/m 14,6 C 20,7 C 11,3 km/h (2 Bft) 91,30 %
19.08.2019 07:25 23,9 C 20,7 C 20,6 C 21,7 C 64 % 68 % 1016,8 hPa 0,0 l/m 4,8 km/h (1 Bft) W-NW 292 0 min 0,000 mm 0,0 UV-I 47 W/m 14,6 C 20,7 C 8,0 km/h (2 Bft) 95,65 %
19.08.2019 07:24 23,9 C 20,7 C 20,6 C 21,7 C 64 % 68 % 1016,8 hPa 0,0 l/m 3,2 km/h (1 Bft) W-NW 292 0 min 0,000 mm 0,0 UV-I 47 W/m 14,6 C 20,7 C 6,4 km/h (2 Bft) 95,65 %
19.08.2019 07:23 23,9 C 20,7 C 20,6 C 21,7 C 64 % 68 % 1016,8 hPa 0,0 l/m 0,0 km/h (0 Bft) W-NW 292 0 min 0,000 mm 0,0 UV-I 47 W/m 14,6 C 20,7 C 3,2 km/h (1 Bft) 91,30 %
19.08.2019 07:22 23,9 C 20,7 C 20,0 C 21,7 C 64 % 68 % 1016,8 hPa 0,0 l/m 0,0 km/h (0 Bft) W-NW 292 0 min 0,000 mm 0,0 UV-I 47 W/m 14,6 C 20,7 C 1,6 km/h (1 Bft) 100,00 %
19.08.2019 07:21 23,9 C 20,7 C 20,0 C 21,7 C 64 % 67 % 1016,8 hPa 0,0 l/m 0,0 km/h (0 Bft) W-NW 292 0 min 0,000 mm 0,0 UV-I 49 W/m 14,3 C 20,7 C 1,6 km/h (1 Bft) 86,96 %
19.08.2019 07:20 23,9 C 20,7 C 20,0 C 21,7 C 64 % 68 % 1016,8 hPa 0,0 l/m 3,2 km/h (1 Bft) W-NW 292 0 min 0,000 mm 0,0 UV-I 51 W/m 14,6 C 20,7 C 4,8 km/h (1 Bft) 95,65 %
19.08.2019 07:19 23,9 C 20,7 C 20,0 C 21,7 C 64 % 68 % 1016,8 hPa 0,0 l/m 3,2 km/h (1 Bft) W-NW 292 0 min 0,000 mm 0,0 UV-I 51 W/m 14,6 C 20,7 C 6,4 km/h (2 Bft) 100,00 %
19.08.2019 07:18 23,9 C 20,7 C 20,0 C 21,7 C 64 % 68 % 1016,8 hPa 0,0 l/m 4,8 km/h (1 Bft) W-NW 292 0 min 0,000 mm 0,0 UV-I 51 W/m 14,6 C 20,7 C 6,4 km/h (2 Bft) 95,65 %
19.08.2019 07:17 23,9 C 20,7 C 20,0 C 21,7 C 64 % 67 % 1016,8 hPa 0,0 l/m 4,8 km/h (1 Bft) W-NW 292 0 min 0,000 mm 0,0 UV-I 51 W/m 14,3 C 20,7 C 6,4 km/h (2 Bft) 95,65 %
19.08.2019 07:16 23,9 C 20,7 C 20,0 C 21,7 C 64 % 67 % 1016,8 hPa 0,0 l/m 6,4 km/h (2 Bft) W-NW 292 0 min 0,000 mm 0,0 UV-I 49 W/m 14,3 C 20,7 C 8,0 km/h (2 Bft) 91,30 %
19.08.2019 07:15 23,9 C 20,7 C 20,0 C 21,7 C 63 % 67 % 1016,8 hPa 0,0 l/m 6,4 km/h (2 Bft) W-NW 292 0 min 0,000 mm 0,0 UV-I 46 W/m 14,3 C 20,7 C 11,3 km/h (2 Bft) 95,65 %
19.08.2019 07:14 23,9 C 20,7 C 20,0 C 21,7 C 64 % 67 % 1016,8 hPa 0,0 l/m 6,4 km/h (2 Bft) W 270 0 min 0,000 mm 0,0 UV-I 44 W/m 14,3 C 20,7 C 9,7 km/h (2 Bft) 95,65 %
19.08.2019 07:13 23,9 C 20,7 C 20,0 C 21,7 C 63 % 67 % 1016,8 hPa 0,0 l/m 4,8 km/h (1 Bft) W-NW 292 0 min 0,000 mm 0,0 UV-I 39 W/m 14,3 C 20,7 C 9,7 km/h (2 Bft) 100,00 %
19.08.2019 07:12 23,9 C 20,7 C 20,0 C 21,7 C 64 % 67 % 1016,8 hPa 0,0 l/m 3,2 km/h (1 Bft) W-NW 292 0 min 0,000 mm 0,0 UV-I 37 W/m 14,3 C 20,7 C 6,4 km/h (2 Bft) 95,65 %
19.08.2019 07:11 23,9 C 20,7 C 20,0 C 21,7 C 64 % 67 % 1016,8 hPa 0,0 l/m 6,4 km/h (2 Bft) W-NW 292 0 min 0,000 mm 0,0 UV-I 35 W/m 14,3 C 20,7 C 9,7 km/h (2 Bft) 95,65 %
19.08.2019 07:10 23,9 C 20,7 C 20,0 C 21,7 C 64 % 68 % 1016,8 hPa 0,0 l/m 3,2 km/h (1 Bft) W 270 0 min 0,000 mm 0,0 UV-I 35 W/m 14,6 C 20,7 C 6,4 km/h (2 Bft) 100,00 %
19.08.2019 07:09 23,9 C 20,7 C 20,0 C 21,7 C 64 % 67 % 1016,8 hPa 0,0 l/m 9,7 km/h (2 Bft) W-SW 247 0 min 0,000 mm 0,0 UV-I 33 W/m 14,3 C 19,5 C 14,5 km/h (3 Bft) 95,65 %
19.08.2019 07:08 23,9 C 20,7 C 20,0 C 21,7 C 64 % 67 % 1016,8 hPa 0,0 l/m 4,8 km/h (1 Bft) W 270 0 min 0,000 mm 0,0 UV-I 32 W/m 14,3 C 20,7 C 9,7 km/h (2 Bft) 95,65 %
19.08.2019 07:07 23,9 C 20,7 C 20,0 C 21,7 C 64 % 67 % 1016,8 hPa 0,0 l/m 4,8 km/h (1 Bft) W 270 0 min 0,000 mm 0,0 UV-I 28 W/m 14,3 C 20,7 C 8,0 km/h (2 Bft) 95,65 %
19.08.2019 07:06 23,9 C 20,7 C 20,0 C 21,7 C 64 % 67 % 1016,8 hPa 0,0 l/m 4,8 km/h (1 Bft) W 270 0 min 0,000 mm 0,0 UV-I 26 W/m 14,3 C 20,7 C 4,8 km/h (1 Bft) 91,30 %
19.08.2019 07:05 23,9 C 20,7 C 20,0 C 21,7 C 63 % 67 % 1016,8 hPa 0,0 l/m 4,8 km/h (1 Bft) W 270 0 min 0,000 mm 0,0 UV-I 25 W/m 14,3 C 20,7 C 8,0 km/h (2 Bft) 86,96 %
19.08.2019 07:04 23,9 C 20,7 C 20,0 C 21,7 C 64 % 67 % 1016,8 hPa 0,0 l/m 3,2 km/h (1 Bft) W 270 0 min 0,000 mm 0,0 UV-I 23 W/m 14,3 C 20,7 C 9,7 km/h (2 Bft) 95,65 %
19.08.2019 07:03 23,9 C 20,7 C 20,0 C 21,7 C 64 % 67 % 1016,8 hPa 0,0 l/m 4,8 km/h (1 Bft) W-NW 292 0 min 0,000 mm 0,0 UV-I 23 W/m 14,3 C 20,7 C 8,0 km/h (2 Bft) 100,00 %
19.08.2019 07:02 23,9 C 20,7 C 20,0 C 21,7 C 64 % 67 % 1016,8 hPa 0,0 l/m 4,8 km/h (1 Bft) W-NW 292 0 min 0,000 mm 0,0 UV-I 21 W/m 14,3 C 20,7 C 11,3 km/h (2 Bft) 95,65 %
19.08.2019 07:01 23,9 C 20,7 C 20,0 C 21,7 C 64 % 67 % 1016,8 hPa 0,0 l/m 4,8 km/h (1 Bft) W-NW 292 0 min 0,000 mm 0,0 UV-I 21 W/m 14,3 C 20,7 C 8,0 km/h (2 Bft) 95,65 %
19.08.2019 07:00 23,9 C 20,7 C 20,0 C 21,7 C 64 % 67 % 1016,8 hPa 0,0 l/m 1,6 km/h (1 Bft) W-NW 292 0 min 0,051 mm 0,0 UV-I 21 W/m 14,3 C 20,7 C 3,2 km/h (1 Bft) 100,00 %
19.08.2019 06:59 23,9 C 20,7 C 20,0 C 21,7 C 64 % 67 % 1016,8 hPa 0,0 l/m 4,8 km/h (1 Bft) W-NW 292 0 min 0,000 mm 0,0 UV-I 19 W/m 14,3 C 20,7 C 8,0 km/h (2 Bft) 95,65 %
19.08.2019 06:58 23,9 C 20,7 C 20,0 C 21,7 C 64 % 67 % 1016,8 hPa 0,0 l/m 1,6 km/h (1 Bft) W-NW 292 0 min 0,000 mm 0,0 UV-I 21 W/m 14,3 C 20,7 C 4,8 km/h (1 Bft) 91,30 %
19.08.2019 06:57 23,9 C 20,7 C 20,0 C 21,7 C 64 % 67 % 1016,8 hPa 0,0 l/m 6,4 km/h (2 Bft) W-NW 292 0 min 0,000 mm 0,0 UV-I 21 W/m 14,3 C 20,7 C 9,7 km/h (2 Bft) 100,00 %
19.08.2019 06:56 23,9 C 20,7 C 20,0 C 21,7 C 64 % 67 % 1016,8 hPa 0,0 l/m 9,7 km/h (2 Bft) W-NW 292 0 min 0,000 mm 0,0 UV-I 21 W/m 14,3 C 19,5 C 14,5 km/h (3 Bft) 91,30 %
19.08.2019 06:55 23,9 C 20,8 C 20,0 C 21,7 C 64 % 67 % 1016,8 hPa 0,0 l/m 8,0 km/h (2 Bft) W-NW 292 0 min 0,000 mm 0,0 UV-I 21 W/m 14,4 C 20,2 C 12,9 km/h (3 Bft) 95,65 %
19.08.2019 06:54 23,9 C 20,8 C 20,0 C 21,7 C 64 % 66 % 1016,8 hPa 0,0 l/m 4,8 km/h (1 Bft) W 270 0 min 0,000 mm 0,0 UV-I 23 W/m 14,2 C 20,8 C 8,0 km/h (2 Bft) 95,65 %
19.08.2019 06:53 23,9 C 20,8 C 20,0 C 21,7 C 64 % 67 % 1016,8 hPa 0,0 l/m 4,8 km/h (1 Bft) W-NW 292 0 min 0,000 mm 0,0 UV-I 23 W/m 14,4 C 20,8 C 8,0 km/h (2 Bft) 91,30 %
19.08.2019 06:52 23,9 C 20,8 C 20,0 C 21,7 C 64 % 67 % 1016,8 hPa 0,0 l/m 4,8 km/h (1 Bft) W-NW 292 0 min 0,000 mm 0,0 UV-I 23 W/m 14,4 C 20,8 C 8,0 km/h (2 Bft) 91,30 %
19.08.2019 06:51 23,9 C 20,8 C 20,0 C 21,7 C 64 % 67 % 1016,8 hPa 0,0 l/m 8,0 km/h (2 Bft) W-NW 292 0 min 0,000 mm 0,0 UV-I 23 W/m 14,4 C 20,2 C 11,3 km/h (2 Bft) 100,00 %
19.08.2019 06:50 23,9 C 20,8 C 20,0 C 21,7 C 64 % 66 % 1016,8 hPa 0,0 l/m 8,0 km/h (2 Bft) W-NW 292 0 min 0,000 mm 0,0 UV-I 23 W/m 14,2 C 20,2 C 11,3 km/h (2 Bft) 86,96 %
19.08.2019 06:49 23,9 C 20,8 C 20,0 C 21,7 C 64 % 66 % 1016,8 hPa 0,0 l/m 6,4 km/h (2 Bft) W 270 0 min 0,000 mm 0,0 UV-I 21 W/m 14,2 C 20,8 C 11,3 km/h (2 Bft) 91,30 %
19.08.2019 06:48 23,9 C 20,8 C 20,0 C 21,7 C 64 % 66 % 1016,8 hPa 0,0 l/m 6,4 km/h (2 Bft) W-NW 292 0 min 0,000 mm 0,0 UV-I 21 W/m 14,2 C 20,8 C 14,5 km/h (3 Bft) 95,65 %
19.08.2019 06:47 23,9 C 20,8 C 20,0 C 21,7 C 64 % 66 % 1016,8 hPa 0,0 l/m 4,8 km/h (1 Bft) W-NW 292 0 min 0,000 mm 0,0 UV-I 19 W/m 14,2 C 20,8 C 11,3 km/h (2 Bft) 91,30 %
19.08.2019 06:46 23,9 C 20,8 C 20,0 C 21,7 C 65 % 66 % 1016,8 hPa 0,0 l/m 8,0 km/h (2 Bft) W-NW 292 0 min 0,000 mm 0,0 UV-I 18 W/m 14,2 C 20,2 C 14,5 km/h (3 Bft) 95,65 %
19.08.2019 06:45 23,9 C 20,8 C 20,0 C 21,7 C 64 % 66 % 1016,8 hPa 0,0 l/m 8,0 km/h (2 Bft) NW 315 0 min 0,000 mm 0,0 UV-I 18 W/m 14,2 C 20,2 C 12,9 km/h (3 Bft) 95,65 %
19.08.2019 06:44 23,9 C 20,9 C 20,0 C 21,7 C 64 % 66 % 1016,8 hPa 0,0 l/m 6,4 km/h (2 Bft) W 270 0 min 0,000 mm 0,0 UV-I 16 W/m 14,3 C 20,9 C 11,3 km/h (2 Bft) 95,65 %
19.08.2019 06:43 23,9 C 20,9 C 20,0 C 21,7 C 64 % 66 % 1016,8 hPa 0,0 l/m 11,3 km/h (2 Bft) W-NW 292 0 min 0,000 mm 0,0 UV-I 14 W/m 14,3 C 19,3 C 14,5 km/h (3 Bft) 91,30 %
19.08.2019 06:42 23,9 C 20,9 C 20,0 C 21,7 C 64 % 66 % 1016,8 hPa 0,0 l/m 11,3 km/h (2 Bft) W-NW 292 0 min 0,000 mm 0,0 UV-I 14 W/m 14,3 C 19,3 C 20,9 km/h (4 Bft) 100,00 %
19.08.2019 06:41 23,9 C 20,9 C 20,0 C 21,7 C 64 % 66 % 1016,8 hPa 0,0 l/m 14,5 km/h (3 Bft) W-NW 292 0 min 0,000 mm 0,0 UV-I 14 W/m 14,3 C 18,5 C 19,3 km/h (3 Bft) 86,96 %
19.08.2019 06:40 23,9 C 20,9 C 20,0 C 21,7 C 64 % 66 % 1016,8 hPa 0,0 l/m 11,3 km/h (2 Bft) W-NW 292 0 min 0,000 mm 0,0 UV-I 14 W/m 14,3 C 19,3 C 17,7 km/h (3 Bft) 95,65 %
19.08.2019 06:39 23,9 C 20,9 C 20,0 C 21,7 C 64 % 66 % 1016,8 hPa 0,0 l/m 9,7 km/h (2 Bft) NW 315 0 min 0,000 mm 0,0 UV-I 12 W/m 14,3 C 19,7 C 14,5 km/h (3 Bft) 91,30 %
19.08.2019 06:38 23,9 C 20,9 C 20,0 C 21,7 C 64 % 66 % 1016,8 hPa 0,0 l/m 12,9 km/h (3 Bft) W-NW 292 0 min 0,000 mm 0,0 UV-I 12 W/m 14,3 C 18,8 C 17,7 km/h (3 Bft) 91,30 %
19.08.2019 06:37 23,9 C 20,9 C 20,0 C 21,7 C 64 % 66 % 1016,8 hPa 0,0 l/m 8,0 km/h (2 Bft) W-NW 292 0 min 0,000 mm 0,0 UV-I 12 W/m 14,3 C 20,3 C 17,7 km/h (3 Bft) 91,30 %
19.08.2019 06:36 23,9 C 20,9 C 20,0 C 21,7 C 64 % 66 % 1016,8 hPa 0,0 l/m 11,3 km/h (2 Bft) W-NW 292 0 min 0,000 mm 0,0 UV-I 12 W/m 14,3 C 19,3 C 16,1 km/h (3 Bft) 86,96 %
19.08.2019 06:35 23,9 C 21,0 C 20,0 C 21,7 C 64 % 66 % 1016,8 hPa 0,0 l/m 6,4 km/h (2 Bft) W-SW 247 0 min 0,000 mm 0,0 UV-I 11 W/m 14,4 C 21,0 C 12,9 km/h (3 Bft) 91,30 %
19.08.2019 06:34 23,9 C 21,0 C 20,0 C 21,7 C 64 % 67 % 1016,8 hPa 0,0 l/m 8,0 km/h (2 Bft) W 270 0 min 0,000 mm 0,0 UV-I 11 W/m 14,6 C 20,4 C 9,7 km/h (2 Bft) 91,30 %
19.08.2019 06:33 23,9 C 21,0 C 20,0 C 21,7 C 64 % 67 % 1016,8 hPa 0,0 l/m 6,4 km/h (2 Bft) W-NW 292 0 min 0,000 mm 0,0 UV-I 9 W/m 14,6 C 21,0 C 9,7 km/h (2 Bft) 100,00 %
19.08.2019 06:32 23,9 C 21,0 C 20,0 C 21,7 C 64 % 67 % 1016,8 hPa 0,0 l/m 6,4 km/h (2 Bft) W-NW 292 0 min 0,000 mm 0,0 UV-I 7 W/m 14,6 C 21,0 C 8,0 km/h (2 Bft) 91,30 %
19.08.2019 06:31 23,9 C 21,0 C 20,0 C 21,7 C 64 % 67 % 1016,8 hPa 0,0 l/m 4,8 km/h (1 Bft) W-NW 292 0 min 0,000 mm 0,0 UV-I 7 W/m 14,6 C 21,0 C 8,0 km/h (2 Bft) 95,65 %
19.08.2019 06:30 23,9 C 21,1 C 20,0 C 21,7 C 64 % 67 % 1016,8 hPa 0,0 l/m 4,8 km/h (1 Bft) W-NW 292 0 min 0,000 mm 0,0 UV-I 7 W/m 14,7 C 21,1 C 8,0 km/h (2 Bft) 91,30 %
19.08.2019 06:29 23,9 C 21,1 C 20,0 C 21,7 C 64 % 67 % 1016,6 hPa 0,0 l/m 6,4 km/h (2 Bft) W-NW 292 0 min 0,000 mm 0,0 UV-I 5 W/m 14,7 C 21,1 C 9,7 km/h (2 Bft) 95,65 %
19.08.2019 06:28 23,9 C 21,1 C 20,0 C 21,7 C 64 % 67 % 1016,6 hPa 0,0 l/m 8,0 km/h (2 Bft) W 270 0 min 0,000 mm 0,0 UV-I 5 W/m 14,7 C 20,5 C 12,9 km/h (3 Bft) 91,30 %
19.08.2019 06:27 23,9 C 21,1 C 20,0 C 21,7 C 64 % 67 % 1016,6 hPa 0,0 l/m 8,0 km/h (2 Bft) W 270 0 min 0,000 mm 0,0 UV-I 5 W/m 14,7 C 20,5 C 12,9 km/h (3 Bft) 95,65 %
19.08.2019 06:26 23,9 C 21,1 C 20,0 C 21,7 C 64 % 67 % 1016,6 hPa 0,0 l/m 8,0 km/h (2 Bft) NW 315 0 min 0,000 mm 0,0 UV-I 5 W/m 14,7 C 20,5 C 12,9 km/h (3 Bft) 95,65 %
19.08.2019 06:25 23,9 C 21,1 C 20,0 C 21,7 C 64 % 67 % 1016,6 hPa 0,0 l/m 4,8 km/h (1 Bft) W 270 0 min 0,000 mm 0,0 UV-I 5 W/m 14,7 C 21,1 C 8,0 km/h (2 Bft) 95,65 %
19.08.2019 06:24 23,9 C 21,1 C 20,0 C 21,7 C 64 % 68 % 1016,6 hPa 0,0 l/m 9,7 km/h (2 Bft) W 270 0 min 0,000 mm 0,0 UV-I 5 W/m 15,0 C 19,9 C 16,1 km/h (3 Bft) 95,65 %
19.08.2019 06:23 23,9 C 21,1 C 20,0 C 21,7 C 64 % 68 % 1016,6 hPa 0,0 l/m 6,4 km/h (2 Bft) W 270 0 min 0,000 mm 0,0 UV-I 5 W/m 15,0 C 21,1 C 12,9 km/h (3 Bft) 95,65 %
19.08.2019 06:22 23,9 C 21,1 C 20,0 C 21,7 C 64 % 68 % 1016,6 hPa 0,0 l/m 8,0 km/h (2 Bft) W-SW 247 0 min 0,000 mm 0,0 UV-I 0 W/m 15,0 C 20,5 C 11,3 km/h (2 Bft) 86,96 %
19.08.2019 06:21 23,9 C 21,2 C 20,0 C 21,7 C 64 % 68 % 1016,6 hPa 0,0 l/m 12,9 km/h (3 Bft) W-NW 292 0 min 0,000 mm 0,0 UV-I 0 W/m 15,1 C 19,2 C 19,3 km/h (3 Bft) 100,00 %
19.08.2019 06:20 23,9 C 21,2 C 20,0 C 21,7 C 64 % 68 % 1016,6 hPa 0,0 l/m 9,7 km/h (2 Bft) W-NW 292 0 min 0,000 mm 0,0 UV-I 0 W/m 15,1 C 20,1 C 16,1 km/h (3 Bft) 91,30 %
19.08.2019 06:19 23,9 C 21,2 C 20,0 C 21,7 C 64 % 68 % 1016,6 hPa 0,0 l/m 8,0 km/h (2 Bft) W-NW 292 0 min 0,000 mm 0,0 UV-I 0 W/m 15,1 C 20,6 C 11,3 km/h (2 Bft) 95,65 %
19.08.2019 06:18 23,9 C 21,2 C 20,0 C 21,7 C 64 % 68 % 1016,6 hPa 0,0 l/m 8,0 km/h (2 Bft) W-NW 292 0 min 0,000 mm 0,0 UV-I 0 W/m 15,1 C 20,6 C 11,3 km/h (2 Bft) 95,65 %
19.08.2019 06:17 23,9 C 21,2 C 20,0 C 21,7 C 64 % 68 % 1016,6 hPa 0,0 l/m 8,0 km/h (2 Bft) W-NW 292 0 min 0,000 mm 0,0 UV-I 0 W/m 15,1 C 20,6 C 11,3 km/h (2 Bft) 95,65 %
19.08.2019 06:16 23,9 C 21,2 C 20,0 C 21,7 C 64 % 68 % 1016,6 hPa 0,0 l/m 8,0 km/h (2 Bft) W-NW 292 0 min 0,000 mm 0,0 UV-I 0 W/m 15,1 C 20,6 C 11,3 km/h (2 Bft) 95,65 %
19.08.2019 06:15 23,9 C 21,2 C 20,0 C 21,7 C 64 % 68 % 1016,6 hPa 0,0 l/m 11,3 km/h (2 Bft) W-NW 292 0 min 0,000 mm 0,0 UV-I 0 W/m 15,1 C 19,6 C 16,1 km/h (3 Bft) 95,65 %
19.08.2019 06:14 23,9 C 21,2 C 20,0 C 21,7 C 64 % 67 % 1016,6 hPa 0,0 l/m 12,9 km/h (3 Bft) W 270 0 min 0,000 mm 0,0 UV-I 0 W/m 14,8 C 19,2 C 17,7 km/h (3 Bft) 100,00 %
19.08.2019 06:13 23,9 C 21,2 C 20,0 C 21,7 C 65 % 67 % 1016,6 hPa 0,0 l/m 12,9 km/h (3 Bft) W-NW 292 0 min 0,000 mm 0,0 UV-I 0 W/m 14,8 C 19,2 C 20,9 km/h (4 Bft) 91,30 %
19.08.2019 06:12 23,9 C 21,2 C 20,0 C 21,7 C 64 % 67 % 1016,6 hPa 0,0 l/m 9,7 km/h (2 Bft) W-NW 292 0 min 0,000 mm 0,0 UV-I 0 W/m 14,8 C 20,1 C 14,5 km/h (3 Bft) 91,30 %
19.08.2019 06:11 23,9 C 21,2 C 20,0 C 21,7 C 65 % 67 % 1016,6 hPa 0,0 l/m 12,9 km/h (3 Bft) W-NW 292 0 min 0,000 mm 0,0 UV-I 0 W/m 14,8 C 19,2 C 17,7 km/h (3 Bft) 95,65 %
19.08.2019 06:10 23,9 C 21,3 C 20,0 C 21,7 C 65 % 67 % 1016,6 hPa 0,0 l/m 12,9 km/h (3 Bft) W-NW 292 0 min 0,000 mm 0,0 UV-I 0 W/m 14,9 C 19,3 C 19,3 km/h (3 Bft) 91,30 %
19.08.2019 06:09 23,9 C 21,3 C 20,0 C 21,7 C 65 % 67 % 1016,6 hPa 0,0 l/m 14,5 km/h (3 Bft) W-NW 292 0 min 0,000 mm 0,0 UV-I 0 W/m 14,9 C 18,9 C 19,3 km/h (3 Bft) 95,65 %
19.08.2019 06:08 23,9 C 21,3 C 20,0 C 21,7 C 65 % 67 % 1016,6 hPa 0,0 l/m 14,5 km/h (3 Bft) W-NW 292 0 min 0,000 mm 0,0 UV-I 0 W/m 14,9 C 18,9 C 22,5 km/h (4 Bft) 100,00 %
19.08.2019 06:07 23,9 C 21,3 C 20,0 C 21,7 C 65 % 68 % 1016,6 hPa 0,0 l/m 8,0 km/h (2 Bft) W-NW 292 0 min 0,000 mm 0,0 UV-I 0 W/m 15,1 C 20,7 C 12,9 km/h (3 Bft) 91,30 %
19.08.2019 06:06 23,9 C 21,3 C 20,0 C 21,7 C 65 % 68 % 1016,6 hPa 0,0 l/m 12,9 km/h (3 Bft) W-NW 292 0 min 0,000 mm 0,0 UV-I 0 W/m 15,1 C 19,3 C 19,3 km/h (3 Bft) 95,65 %
19.08.2019 06:05 23,9 C 21,3 C 20,0 C 21,7 C 65 % 68 % 1016,6 hPa 0,0 l/m 16,1 km/h (3 Bft) W-NW 292 0 min 0,000 mm 0,0 UV-I 0 W/m 15,1 C 18,6 C 24,1 km/h (4 Bft) 100,00 %
19.08.2019 06:04 23,9 C 21,3 C 20,0 C 21,7 C 65 % 68 % 1016,6 hPa 0,0 l/m 11,3 km/h (2 Bft) W-NW 292 0 min 0,000 mm 0,0 UV-I 0 W/m 15,1 C 19,7 C 19,3 km/h (3 Bft) 95,65 %
19.08.2019 06:03 23,9 C 21,3 C 20,0 C 21,7 C 65 % 68 % 1016,6 hPa 0,0 l/m 12,9 km/h (3 Bft) W 270 0 min 0,000 mm 0,0 UV-I 0 W/m 15,1 C 19,3 C 19,3 km/h (3 Bft) 91,30 %
19.08.2019 06:02 23,9 C 21,3 C 20,0 C 21,7 C 65 % 68 % 1016,6 hPa 0,0 l/m 16,1 km/h (3 Bft) W-NW 292 0 min 0,000 mm 0,0 UV-I 0 W/m 15,1 C 18,6 C 24,1 km/h (4 Bft) 100,00 %
19.08.2019 06:01 23,9 C 21,3 C 20,0 C 21,7 C 65 % 68 % 1016,6 hPa 0,0 l/m 16,1 km/h (3 Bft) W-NW 292 0 min 0,000 mm 0,0 UV-I 0 W/m 15,1 C 18,6 C 32,2 km/h (5 Bft) 95,65 %
19.08.2019 06:00 23,9 C 21,3 C 20,0 C 21,7 C 65 % 68 % 1016,6 hPa 0,0 l/m 12,9 km/h (3 Bft) W-NW 292 0 min 0,076 mm 0,0 UV-I 0 W/m 15,1 C 19,3 C 20,9 km/h (4 Bft) 91,30 %
19.08.2019 05:59 23,9 C 21,3 C 20,6 C 21,7 C 65 % 68 % 1016,3 hPa 0,0 l/m 11,3 km/h (2 Bft) W-NW 292 0 min 0,000 mm 0,0 UV-I 0 W/m 15,1 C 19,7 C 20,9 km/h (4 Bft) 95,65 %
19.08.2019 05:58 23,9 C 21,3 C 20,6 C 21,7 C 65 % 68 % 1016,3 hPa 0,0 l/m 14,5 km/h (3 Bft) W-NW 292 0 min 0,000 mm 0,0 UV-I 0 W/m 15,1 C 18,9 C 19,3 km/h (3 Bft) 95,65 %
19.08.2019 05:57 23,9 C 21,3 C 20,6 C 21,7 C 66 % 68 % 1016,3 hPa 0,0 l/m 16,1 km/h (3 Bft) W 270 0 min 0,000 mm 0,0 UV-I 0 W/m 15,1 C 18,6 C 22,5 km/h (4 Bft) 95,65 %
19.08.2019 05:56 23,9 C 21,3 C 20,0 C 21,7 C 65 % 68 % 1016,3 hPa 0,0 l/m 12,9 km/h (3 Bft) W-NW 292 0 min 0,000 mm 0,0 UV-I 0 W/m 15,1 C 19,3 C 24,1 km/h (4 Bft) 95,65 %
19.08.2019 05:55 23,9 C 21,3 C 20,0 C 21,7 C 65 % 68 % 1016,3 hPa 0,0 l/m 16,1 km/h (3 Bft) W 270 0 min 0,000 mm 0,0 UV-I 0 W/m 15,1 C 18,6 C 20,9 km/h (4 Bft) 95,65 %
19.08.2019 05:54 23,9 C 21,3 C 20,6 C 21,7 C 65 % 69 % 1016,3 hPa 0,0 l/m 16,1 km/h (3 Bft) W 270 0 min 0,000 mm 0,0 UV-I 0 W/m 15,4 C 18,6 C 29,0 km/h (5 Bft) 91,30 %
19.08.2019 05:53 23,9 C 21,3 C 20,0 C 21,7 C 65 % 69 % 1016,3 hPa 0,0 l/m 14,5 km/h (3 Bft) W 270 0 min 0,000 mm 0,0 UV-I 0 W/m 15,4 C 18,9 C 20,9 km/h (4 Bft) 100,00 %
19.08.2019 05:52 23,9 C 21,3 C 20,0 C 21,7 C 65 % 69 % 1016,3 hPa 0,0 l/m 19,3 km/h (3 Bft) W 270 0 min 0,000 mm 0,0 UV-I 0 W/m 15,4 C 18,0 C 27,4 km/h (4 Bft) 95,65 %
19.08.2019 05:51 23,9 C 21,3 C 20,0 C 21,7 C 65 % 69 % 1016,3 hPa 0,0 l/m 12,9 km/h (3 Bft) SW 225 0 min 0,000 mm 0,0 UV-I 0 W/m 15,4 C 19,3 C 24,1 km/h (4 Bft) 95,65 %
19.08.2019 05:50 23,9 C 21,4 C 20,0 C 21,7 C 65 % 69 % 1016,3 hPa 0,0 l/m 9,7 km/h (2 Bft) W 270 0 min 0,000 mm 0,0 UV-I 0 W/m 15,5 C 20,3 C 12,9 km/h (3 Bft) 100,00 %
19.08.2019 05:49 23,9 C 21,4 C 20,0 C 21,7 C 65 % 69 % 1016,3 hPa 0,0 l/m 14,5 km/h (3 Bft) W-NW 292 0 min 0,000 mm 0,0 UV-I 0 W/m 15,5 C 19,1 C 24,1 km/h (4 Bft) 91,30 %
19.08.2019 05:48 23,9 C 21,4 C 20,0 C 21,7 C 65 % 69 % 1016,3 hPa 0,0 l/m 11,3 km/h (2 Bft) W-NW 292 0 min 0,000 mm 0,0 UV-I 0 W/m 15,5 C 19,8 C 17,7 km/h (3 Bft) 95,65 %
19.08.2019 05:47 23,9 C 21,4 C 20,0 C 21,7 C 65 % 69 % 1016,3 hPa 0,0 l/m 11,3 km/h (2 Bft) W-NW 292 0 min 0,000 mm 0,0 UV-I 0 W/m 15,5 C 19,8 C 17,7 km/h (3 Bft) 100,00 %
19.08.2019 05:46 23,9 C 21,4 C 20,0 C 21,7 C 65 % 69 % 1016,3 hPa 0,0 l/m 12,9 km/h (3 Bft) W-NW 292 0 min 0,000 mm 0,0 UV-I 0 W/m 15,5 C 19,4 C 22,5 km/h (4 Bft) 95,65 %
19.08.2019 05:45 23,9 C 21,4 C 20,0 C 21,7 C 65 % 69 % 1016,3 hPa 0,0 l/m 9,7 km/h (2 Bft) W-NW 292 0 min 0,000 mm 0,0 UV-I 0 W/m 15,5 C 20,3 C 17,7 km/h (3 Bft) 95,65 %
19.08.2019 05:44 23,9 C 21,4 C 20,0 C 21,7 C 65 % 69 % 1016,3 hPa 0,0 l/m 9,7 km/h (2 Bft) W 270 0 min 0,000 mm 0,0 UV-I 0 W/m 15,5 C 20,3 C 14,5 km/h (3 Bft) 95,65 %
19.08.2019 05:43 23,9 C 21,4 C 20,0 C 21,7 C 65 % 69 % 1016,3 hPa 0,0 l/m 12,9 km/h (3 Bft) W-NW 292 0 min 0,000 mm 0,0 UV-I 0 W/m 15,5 C 19,4 C 17,7 km/h (3 Bft) 95,65 %
19.08.2019 05:42 23,9 C 21,4 C 20,0 C 21,7 C 65 % 69 % 1016,3 hPa 0,0 l/m 12,9 km/h (3 Bft) W 270 0 min 0,000 mm 0,0 UV-I 0 W/m 15,5 C 19,4 C 17,7 km/h (3 Bft) 91,30 %
19.08.2019 05:41 23,9 C 21,5 C 20,0 C 21,7 C 65 % 69 % 1016,3 hPa 0,0 l/m 14,5 km/h (3 Bft) W 270 0 min 0,000 mm 0,0 UV-I 0 W/m 15,6 C 19,2 C 19,3 km/h (3 Bft) 100,00 %
19.08.2019 05:40 23,9 C 21,5 C 20,0 C 21,7 C 65 % 69 % 1016,3 hPa 0,0 l/m 9,7 km/h (2 Bft) W-NW 292 0 min 0,000 mm 0,0 UV-I 0 W/m 15,6 C 20,4 C 17,7 km/h (3 Bft) 95,65 %
19.08.2019 05:39 23,9 C 21,5 C 20,0 C 21,7 C 65 % 69 % 1016,3 hPa 0,0 l/m 12,9 km/h (3 Bft) W-NW 292 0 min 0,000 mm 0,0 UV-I 0 W/m 15,6 C 19,5 C 22,5 km/h (4 Bft) 95,65 %
19.08.2019 05:38 23,9 C 21,6 C 20,0 C 21,7 C 65 % 69 % 1016,3 hPa 0,0 l/m 9,7 km/h (2 Bft) W 270 0 min 0,000 mm 0,0 UV-I 0 W/m 15,7 C 20,5 C 16,1 km/h (3 Bft) 95,65 %
19.08.2019 05:37 23,9 C 21,6 C 20,0 C 21,7 C 65 % 69 % 1016,3 hPa 0,0 l/m 11,3 km/h (2 Bft) W-NW 292 0 min 0,000 mm 0,0 UV-I 0 W/m 15,7 C 20,1 C 17,7 km/h (3 Bft) 95,65 %
19.08.2019 05:36 23,9 C 21,6 C 20,0 C 21,7 C 65 % 69 % 1016,3 hPa 0,0 l/m 14,5 km/h (3 Bft) W-NW 292 0 min 0,000 mm 0,0 UV-I 0 W/m 15,7 C 19,3 C 20,9 km/h (4 Bft) 95,65 %
19.08.2019 05:35 23,9 C 21,6 C 20,0 C 21,7 C 65 % 69 % 1016,3 hPa 0,0 l/m 12,9 km/h (3 Bft) W-NW 292 0 min 0,000 mm 0,0 UV-I 0 W/m 15,7 C 19,7 C 17,7 km/h (3 Bft) 100,00 %
19.08.2019 05:34 23,9 C 21,6 C 20,0 C 21,7 C 65 % 69 % 1016,3 hPa 0,0 l/m 14,5 km/h (3 Bft) W-NW 292 0 min 0,000 mm 0,0 UV-I 0 W/m 15,7 C 19,3 C 17,7 km/h (3 Bft) 95,65 %
19.08.2019 05:33 23,9 C 21,6 C 20,0 C 21,7 C 65 % 69 % 1016,3 hPa 0,0 l/m 17,7 km/h (3 Bft) W-NW 292 0 min 0,000 mm 0,0 UV-I 0 W/m 15,7 C 18,7 C 22,5 km/h (4 Bft) 95,65 %
19.08.2019 05:32 23,9 C 21,6 C 20,0 C 21,7 C 65 % 69 % 1016,3 hPa 0,0 l/m 12,9 km/h (3 Bft) N-NW 337 0 min 0,000 mm 0,0 UV-I 0 W/m 15,7 C 19,7 C 24,1 km/h (4 Bft) 100,00 %
19.08.2019 05:31 23,9 C 21,6 C 20,0 C 21,7 C 65 % 69 % 1016,3 hPa 0,0 l/m 19,3 km/h (3 Bft) W-NW 292 0 min 0,000 mm 0,0 UV-I 0 W/m 15,7 C 18,4 C 29,0 km/h (5 Bft) 91,30 %
19.08.2019 05:30 23,9 C 21,6 C 20,0 C 21,7 C 65 % 68 % 1016,3 hPa 0,0 l/m 16,1 km/h (3 Bft) NW 315 0 min 0,000 mm 0,0 UV-I 0 W/m 15,4 C 19,0 C 20,9 km/h (4 Bft) 91,30 %
19.08.2019 05:29 23,9 C 21,6 C 20,0 C 21,7 C 65 % 68 % 1015,3 hPa 0,0 l/m 20,9 km/h (4 Bft) NW 315 0 min 0,000 mm 0,0 UV-I 0 W/m 15,4 C 18,1 C 27,4 km/h (4 Bft) 100,00 %
19.08.2019 05:28 23,9 C 21,6 C 20,0 C 21,7 C 65 % 69 % 1015,3 hPa 0,0 l/m 16,1 km/h (3 Bft) W-NW 292 0 min 0,000 mm 0,0 UV-I 0 W/m 15,7 C 19,0 C 27,4 km/h (4 Bft) 95,65 %
19.08.2019 05:27 23,9 C 21,7 C 20,0 C 21,7 C 66 % 68 % 1015,3 hPa 0,0 l/m 16,1 km/h (3 Bft) W 270 0 min 0,000 mm 0,0 UV-I 0 W/m 15,5 C 19,1 C 24,1 km/h (4 Bft) 95,65 %
19.08.2019 05:26 23,9 C 21,7 C 19,4 C 21,7 C 65 % 68 % 1015,3 hPa 0,0 l/m 17,7 km/h (3 Bft) W-NW 292 0 min 0,000 mm 0,0 UV-I 0 W/m 15,5 C 18,8 C 30,6 km/h (5 Bft) 95,65 %
19.08.2019 05:25 23,9 C 21,7 C 19,4 C 21,7 C 65 % 69 % 1015,3 hPa 0,0 l/m 20,9 km/h (4 Bft) W-NW 292 0 min 0,000 mm 0,0 UV-I 0 W/m 15,8 C 18,3 C 33,8 km/h (5 Bft) 100,00 %
19.08.2019 05:24 23,9 C 21,7 C 19,4 C 21,7 C 65 % 69 % 1015,3 hPa 0,0 l/m 20,9 km/h (4 Bft) W-NW 292 0 min 0,000 mm 0,0 UV-I 0 W/m 15,8 C 18,3 C 29,0 km/h (5 Bft) 91,30 %
19.08.2019 05:23 23,9 C 21,7 C 19,4 C 21,7 C 65 % 69 % 1015,3 hPa 0,0 l/m 14,5 km/h (3 Bft) W-NW 292 0 min 0,000 mm 0,0 UV-I 0 W/m 15,8 C 19,4 C 20,9 km/h (4 Bft) 91,30 %
19.08.2019 05:22 23,9 C 21,7 C 19,4 C 21,7 C 65 % 69 % 1015,3 hPa 0,0 l/m 20,9 km/h (4 Bft) W-NW 292 0 min 0,000 mm 0,0 UV-I 0 W/m 15,8 C 18,3 C 29,0 km/h (5 Bft) 100,00 %
19.08.2019 05:21 23,9 C 21,8 C 19,4 C 21,7 C 65 % 69 % 1015,3 hPa 0,0 l/m 14,5 km/h (3 Bft) W-NW 292 0 min 0,000 mm 0,0 UV-I 0 W/m 15,9 C 19,5 C 25,7 km/h (4 Bft) 95,65 %
19.08.2019 05:20 23,9 C 21,8 C 19,4 C 21,7 C 65 % 69 % 1015,3 hPa 0,0 l/m 19,3 km/h (3 Bft) W 270 0 min 0,000 mm 0,0 UV-I 0 W/m 15,9 C 18,6 C 25,7 km/h (4 Bft) 95,65 %
19.08.2019 05:19 23,9 C 21,8 C 18,9 C 21,7 C 65 % 68 % 1015,3 hPa 0,0 l/m 19,3 km/h (3 Bft) W-NW 292 0 min 0,000 mm 0,0 UV-I 0 W/m 15,6 C 18,6 C 27,4 km/h (4 Bft) 100,00 %
19.08.2019 05:18 23,9 C 21,9 C 18,9 C 21,7 C 66 % 69 % 1015,3 hPa 0,0 l/m 19,3 km/h (3 Bft) W-NW 292 0 min 0,000 mm 0,0 UV-I 0 W/m 15,9 C 18,8 C 29,0 km/h (5 Bft) 95,65 %
19.08.2019 05:17 23,9 C 21,9 C 18,9 C 21,7 C 66 % 69 % 1015,3 hPa 0,0 l/m 19,3 km/h (3 Bft) W-NW 292 0 min 0,000 mm 0,0 UV-I 0 W/m 15,9 C 18,8 C 30,6 km/h (5 Bft) 95,65 %
19.08.2019 05:16 23,9 C 21,9 C 18,9 C 21,7 C 65 % 69 % 1015,3 hPa 0,0 l/m 20,9 km/h (4 Bft) W-NW 292 0 min 0,000 mm 0,0 UV-I 0 W/m 15,9 C 18,5 C 33,8 km/h (5 Bft) 95,65 %
19.08.2019 05:15 23,9 C 22,0 C 18,9 C 21,7 C 65 % 69 % 1015,3 hPa 0,0 l/m 25,7 km/h (4 Bft) W-NW 292 0 min 0,000 mm 0,0 UV-I 0 W/m 16,0 C 18,0 C 43,5 km/h (6 Bft) 95,65 %
19.08.2019 05:14 23,9 C 22,1 C 18,9 C 21,7 C 65 % 68 % 1015,1 hPa 0,0 l/m 20,9 km/h (4 Bft) W 270 0 min 0,000 mm 0,0 UV-I 0 W/m 15,9 C 18,8 C 32,2 km/h (5 Bft) 86,96 %
19.08.2019 05:13 23,9 C 22,2 C 18,9 C 21,7 C 65 % 69 % 1015,1 hPa 0,0 l/m 25,7 km/h (4 Bft) W-NW 292 0 min 0,000 mm 0,0 UV-I 0 W/m 16,2 C 18,3 C 38,6 km/h (5 Bft) 100,00 %
19.08.2019 05:12 23,9 C 22,2 C 18,9 C 21,7 C 65 % 69 % 1015,1 hPa 0,0 l/m 14,5 km/h (3 Bft) W-NW 292 0 min 0,000 mm 0,0 UV-I 0 W/m 16,2 C 20,0 C 24,1 km/h (4 Bft) 91,30 %
19.08.2019 05:11 23,9 C 22,3 C 18,9 C 21,7 C 65 % 69 % 1015,1 hPa 0,0 l/m 16,1 km/h (3 Bft) W-NW 292 0 min 0,000 mm 0,0 UV-I 0 W/m 16,3 C 19,8 C 20,9 km/h (4 Bft) 95,65 %
19.08.2019 05:10 23,9 C 22,3 C 18,9 C 21,7 C 65 % 68 % 1015,1 hPa 0,0 l/m 20,9 km/h (4 Bft) W-NW 292 0 min 0,000 mm 0,0 UV-I 0 W/m 16,1 C 19,0 C 32,2 km/h (5 Bft) 91,30 %
19.08.2019 05:09 23,9 C 22,3 C 19,4 C 21,7 C 65 % 68 % 1015,1 hPa 0,0 l/m 17,7 km/h (3 Bft) W-NW 292 0 min 0,000 mm 0,0 UV-I 0 W/m 16,1 C 19,5 C 32,2 km/h (5 Bft) 95,65 %
19.08.2019 05:08 23,9 C 22,4 C 20,0 C 21,7 C 65 % 68 % 1015,1 hPa 0,0 l/m 16,1 km/h (3 Bft) W-NW 292 0 min 0,000 mm 0,0 UV-I 0 W/m 16,2 C 20,0 C 25,7 km/h (4 Bft) 91,30 %
19.08.2019 05:07 23,9 C 22,4 C 20,0 C 21,7 C 65 % 67 % 1015,1 hPa 0,0 l/m 20,9 km/h (4 Bft) W-NW 292 0 min 0,000 mm 0,0 UV-I 0 W/m 16,0 C 19,2 C 41,8 km/h (6 Bft) 95,65 %
19.08.2019 05:06 23,9 C 22,4 C 20,6 C 21,7 C 65 % 67 % 1015,1 hPa 0,0 l/m 25,7 km/h (4 Bft) NW 315 0 min 0,000 mm 0,0 UV-I 0 W/m 16,0 C 18,6 C 41,8 km/h (6 Bft) 91,30 %
19.08.2019 05:05 23,9 C 22,4 C 21,1 C 21,7 C 65 % 67 % 1015,1 hPa 0,0 l/m 27,4 km/h (4 Bft) W-NW 292 0 min 0,000 mm 0,0 UV-I 0 W/m 16,0 C 18,4 C 38,6 km/h (5 Bft) 91,30 %
19.08.2019 05:04 23,9 C 22,4 C 21,1 C 21,7 C 65 % 67 % 1015,1 hPa 0,0 l/m 19,3 km/h (3 Bft) W-NW 292 0 min 0,000 mm 0,0 UV-I 0 W/m 16,0 C 19,4 C 40,2 km/h (6 Bft) 100,00 %
19.08.2019 05:03 23,9 C 22,5 C 21,1 C 21,7 C 65 % 67 % 1015,1 hPa 0,0 l/m 24,1 km/h (4 Bft) W-NW 292 0 min 0,000 mm 0,0 UV-I 0 W/m 16,1 C 18,9 C 40,2 km/h (6 Bft) 86,96 %
19.08.2019 05:02 23,9 C 22,5 C 21,1 C 21,7 C 65 % 67 % 1015,1 hPa 0,0 l/m 30,6 km/h (5 Bft) W-NW 292 0 min 0,000 mm 0,0 UV-I 0 W/m 16,1 C 18,2 C 37,0 km/h (5 Bft) 91,30 %
19.08.2019 05:01 24,1 C 22,4 C 21,1 C 21,7 C 65 % 67 % 1015,1 hPa 0,0 l/m 24,1 km/h (4 Bft) W-NW 292 0 min 0,000 mm 0,0 UV-I 0 W/m 16,0 C 18,7 C 37,0 km/h (5 Bft) 91,30 %
19.08.2019 05:00 23,9 C 22,4 C 21,1 C 21,7 C 65 % 66 % 1015,1 hPa 0,0 l/m 24,1 km/h (4 Bft) W-NW 292 0 min 0,051 mm 0,0 UV-I 0 W/m 15,7 C 18,7 C 38,6 km/h (5 Bft) 95,65 %
19.08.2019 04:59 23,9 C 22,4 C 21,1 C 21,7 C 66 % 67 % 1014,7 hPa 0,0 l/m 20,9 km/h (4 Bft) W 270 0 min 0,000 mm 0,0 UV-I 0 W/m 16,0 C 19,2 C 37,0 km/h (5 Bft) 91,30 %
19.08.2019 04:58 23,9 C 22,4 C 21,1 C 21,7 C 65 % 67 % 1014,7 hPa 0,0 l/m 16,1 km/h (3 Bft) W-NW 292 0 min 0,000 mm 0,0 UV-I 0 W/m 16,0 C 20,0 C 24,1 km/h (4 Bft) 95,65 %
19.08.2019 04:57 23,9 C 22,4 C 21,1 C 21,7 C 65 % 67 % 1014,7 hPa 0,0 l/m 19,3 km/h (3 Bft) W-NW 292 0 min 0,000 mm 0,0 UV-I 0 W/m 16,0 C 19,4 C 29,0 km/h (5 Bft) 91,30 %
19.08.2019 04:56 23,9 C 22,3 C 21,1 C 21,7 C 65 % 67 % 1014,7 hPa 0,0 l/m 14,5 km/h (3 Bft) W 270 0 min 0,000 mm 0,0 UV-I 0 W/m 15,9 C 20,1 C 25,7 km/h (4 Bft) 95,65 %
19.08.2019 04:55 23,9 C 22,3 C 21,1 C 21,7 C 65 % 67 % 1014,7 hPa 0,0 l/m 16,1 km/h (3 Bft) W-NW 292 0 min 0,000 mm 0,0 UV-I 0 W/m 15,9 C 19,8 C 20,9 km/h (4 Bft) 91,30 %
19.08.2019 04:54 23,9 C 22,3 C 21,1 C 21,7 C 65 % 67 % 1014,7 hPa 0,0 l/m 16,1 km/h (3 Bft) W-NW 292 0 min 0,000 mm 0,0 UV-I 0 W/m 15,9 C 19,8 C 22,5 km/h (4 Bft) 91,30 %
19.08.2019 04:53 23,9 C 22,2 C 21,1 C 21,7 C 65 % 67 % 1014,7 hPa 0,0 l/m 16,1 km/h (3 Bft) W-NW 292 0 min 0,000 mm 0,0 UV-I 0 W/m 15,8 C 19,7 C 22,5 km/h (4 Bft) 95,65 %
19.08.2019 04:52 23,9 C 22,2 C 21,1 C 21,7 C 65 % 67 % 1014,7 hPa 0,0 l/m 16,1 km/h (3 Bft) W-NW 292 0 min 0,000 mm 0,0 UV-I 0 W/m 15,8 C 19,7 C 24,1 km/h (4 Bft) 91,30 %
19.08.2019 04:51 23,9 C 22,1 C 21,1 C 21,7 C 65 % 67 % 1014,7 hPa 0,0 l/m 20,9 km/h (4 Bft) W 270 0 min 0,000 mm 0,0 UV-I 0 W/m 15,7 C 18,8 C 27,4 km/h (4 Bft) 95,65 %
19.08.2019 04:50 23,9 C 22,1 C 21,7 C 21,7 C 65 % 68 % 1014,7 hPa 0,0 l/m 17,7 km/h (3 Bft) W-NW 292 0 min 0,000 mm 0,0 UV-I 0 W/m 15,9 C 19,3 C 24,1 km/h (4 Bft) 86,96 %
19.08.2019 04:49 23,9 C 22,0 C 21,1 C 21,7 C 66 % 68 % 1014,7 hPa 0,0 l/m 14,5 km/h (3 Bft) W-NW 292 0 min 0,000 mm 0,0 UV-I 0 W/m 15,8 C 19,8 C 32,2 km/h (5 Bft) 100,00 %
19.08.2019 04:48 23,9 C 21,9 C 21,1 C 21,7 C 65 % 68 % 1014,7 hPa 0,0 l/m 17,7 km/h (3 Bft) W-NW 292 0 min 0,000 mm 0,0 UV-I 0 W/m 15,7 C 19,0 C 29,0 km/h (5 Bft) 91,30 %
19.08.2019 04:47 23,9 C 21,9 C 21,1 C 21,7 C 66 % 69 % 1014,7 hPa 0,0 l/m 22,5 km/h (4 Bft) W-NW 292 0 min 0,000 mm 0,0 UV-I 0 W/m 15,9 C 18,3 C 32,2 km/h (5 Bft) 95,65 %
19.08.2019 04:46 23,9 C 21,8 C 21,1 C 21,7 C 66 % 69 % 1014,7 hPa 0,0 l/m 17,7 km/h (3 Bft) W 270 0 min 0,000 mm 0,0 UV-I 0 W/m 15,9 C 18,9 C 27,4 km/h (4 Bft) 100,00 %
19.08.2019 04:45 23,9 C 21,7 C 21,1 C 21,7 C 66 % 69 % 1014,7 hPa 0,0 l/m 9,7 km/h (2 Bft) W-NW 292 0 min 0,000 mm 0,0 UV-I 0 W/m 15,8 C 20,6 C 14,5 km/h (3 Bft) 95,65 %
19.08.2019 04:44 23,9 C 21,7 C 21,1 C 21,7 C 66 % 70 % 1013,7 hPa 0,0 l/m 12,9 km/h (3 Bft) W-NW 292 0 min 0,000 mm 0,0 UV-I 0 W/m 16,0 C 19,8 C 20,9 km/h (4 Bft) 95,65 %
19.08.2019 04:43 23,9 C 21,7 C 21,1 C 21,7 C 66 % 70 % 1013,7 hPa 0,0 l/m 14,5 km/h (3 Bft) W-NW 292 0 min 0,000 mm 0,0 UV-I 0 W/m 16,0 C 19,4 C 17,7 km/h (3 Bft) 100,00 %
19.08.2019 04:42 23,9 C 21,6 C 21,1 C 21,7 C 66 % 70 % 1013,7 hPa 0,0 l/m 14,5 km/h (3 Bft) W-NW 292 0 min 0,000 mm 0,0 UV-I 0 W/m 15,9 C 19,3 C 20,9 km/h (4 Bft) 95,65 %
19.08.2019 04:41 23,9 C 21,5 C 21,1 C 21,7 C 66 % 71 % 1013,7 hPa 0,0 l/m 14,5 km/h (3 Bft) W 270 0 min 0,000 mm 0,0 UV-I 0 W/m 16,0 C 19,2 C 22,5 km/h (4 Bft) 95,65 %
19.08.2019 04:40 23,9 C 21,4 C 21,1 C 21,7 C 66 % 71 % 1013,7 hPa 0,0 l/m 12,9 km/h (3 Bft) W 270 0 min 0,000 mm 0,0 UV-I 0 W/m 15,9 C 19,4 C 20,9 km/h (4 Bft) 100,00 %
19.08.2019 04:39 23,9 C 21,4 C 21,1 C 21,7 C 66 % 71 % 1013,7 hPa 0,0 l/m 12,9 km/h (3 Bft) W-SW 247 0 min 0,000 mm 0,0 UV-I 0 W/m 15,9 C 19,4 C 27,4 km/h (4 Bft) 95,65 %
19.08.2019 04:38 23,9 C 21,3 C 21,1 C 21,7 C 66 % 72 % 1013,7 hPa 0,0 l/m 16,1 km/h (3 Bft) W-NW 292 0 min 0,000 mm 0,0 UV-I 0 W/m 16,0 C 18,6 C 29,0 km/h (5 Bft) 95,65 %
19.08.2019 04:37 23,9 C 21,2 C 21,1 C 21,7 C 66 % 72 % 1013,7 hPa 0,0 l/m 16,1 km/h (3 Bft) W 270 0 min 0,000 mm 0,0 UV-I 0 W/m 15,9 C 18,5 C 22,5 km/h (4 Bft) 95,65 %
19.08.2019 04:36 24,1 C 21,2 C 21,1 C 21,7 C 66 % 72 % 1013,7 hPa 0,0 l/m 14,5 km/h (3 Bft) W-NW 292 0 min 0,000 mm 0,0 UV-I 0 W/m 15,9 C 18,8 C 20,9 km/h (4 Bft) 100,00 %
19.08.2019 04:35 24,1 C 21,1 C 20,6 C 21,7 C 66 % 73 % 1013,7 hPa 0,0 l/m 11,3 km/h (2 Bft) W 270 0 min 0,000 mm 0,0 UV-I 0 W/m 16,1 C 19,5 C 17,7 km/h (3 Bft) 95,65 %
19.08.2019 04:34 24,1 C 21,1 C 20,6 C 21,7 C 66 % 73 % 1013,7 hPa 0,0 l/m 11,3 km/h (2 Bft) W-NW 292 0 min 0,000 mm 0,0 UV-I 0 W/m 16,1 C 19,5 C 19,3 km/h (3 Bft) 95,65 %
19.08.2019 04:33 24,1 C 21,0 C 20,6 C 21,7 C 66 % 73 % 1013,7 hPa 0,0 l/m 12,9 km/h (3 Bft) W 270 0 min 0,000 mm 0,0 UV-I 0 W/m 16,0 C 19,0 C 19,3 km/h (3 Bft) 100,00 %
19.08.2019 04:32 24,1 C 20,9 C 20,6 C 21,7 C 66 % 74 % 1013,7 hPa 0,0 l/m 8,0 km/h (2 Bft) W-SW 247 0 min 0,000 mm 0,0 UV-I 0 W/m 16,1 C 20,3 C 12,9 km/h (3 Bft) 95,65 %
19.08.2019 04:31 24,1 C 20,9 C 20,6 C 21,7 C 66 % 74 % 1013,7 hPa 0,0 l/m 6,4 km/h (2 Bft) W 270 0 min 0,000 mm 0,0 UV-I 0 W/m 16,1 C 20,9 C 17,7 km/h (3 Bft) 95,65 %
19.08.2019 04:30 24,1 C 20,8 C 20,6 C 21,7 C 66 % 75 % 1013,7 hPa 0,0 l/m 9,7 km/h (2 Bft) W-SW 247 0 min 0,000 mm 0,0 UV-I 0 W/m 16,2 C 19,6 C 17,7 km/h (3 Bft) 100,00 %
19.08.2019 04:29 24,1 C 20,8 C 20,6 C 21,7 C 66 % 75 % 1013,1 hPa 0,0 l/m 8,0 km/h (2 Bft) W-NW 292 0 min 0,000 mm 0,0 UV-I 0 W/m 16,2 C 20,2 C 12,9 km/h (3 Bft) 95,65 %
19.08.2019 04:28 24,1 C 20,7 C 20,6 C 21,7 C 66 % 75 % 1013,1 hPa 0,0 l/m 11,3 km/h (2 Bft) W 270 0 min 0,000 mm 0,0 UV-I 0 W/m 16,1 C 19,0 C 14,5 km/h (3 Bft) 95,65 %
19.08.2019 04:27 24,1 C 20,7 C 20,6 C 21,7 C 66 % 76 % 1013,1 hPa 0,0 l/m 9,7 km/h (2 Bft) W-NW 292 0 min 0,000 mm 0,0 UV-I 0 W/m 16,3 C 19,5 C 16,1 km/h (3 Bft) 100,00 %
19.08.2019 04:26 24,1 C 20,7 C 20,6 C 21,7 C 66 % 76 % 1013,1 hPa 0,0 l/m 6,4 km/h (2 Bft) W-SW 247 0 min 0,000 mm 0,0 UV-I 0 W/m 16,3 C 20,7 C 12,9 km/h (3 Bft) 91,30 %
19.08.2019 04:25 24,1 C 20,7 C 20,6 C 21,7 C 66 % 75 % 1013,1 hPa 0,0 l/m 4,8 km/h (1 Bft) W-SW 247 0 min 0,000 mm 0,0 UV-I 0 W/m 16,1 C 20,7 C 8,0 km/h (2 Bft) 95,65 %
19.08.2019 04:24 24,1 C 20,6 C 20,6 C 21,7 C 66 % 76 % 1013,1 hPa 0,0 l/m 6,4 km/h (2 Bft) W-SW 247 0 min 0,000 mm 0,0 UV-I 0 W/m 16,2 C 20,6 C 8,0 km/h (2 Bft) 95,65 %
19.08.2019 04:23 24,1 C 20,6 C 20,0 C 21,7 C 66 % 76 % 1013,1 hPa 0,0 l/m 8,0 km/h (2 Bft) W-SW 247 0 min 0,000 mm 0,0 UV-I 0 W/m 16,2 C 20,0 C 11,3 km/h (2 Bft) 91,30 %
19.08.2019 04:22 24,1 C 20,6 C 20,0 C 21,7 C 66 % 76 % 1013,1 hPa 0,0 l/m 6,4 km/h (2 Bft) W-SW 247 0 min 0,000 mm 0,0 UV-I 0 W/m 16,2 C 20,6 C 9,7 km/h (2 Bft) 95,65 %
19.08.2019 04:21 24,1 C 20,5 C 20,0 C 21,7 C 67 % 76 % 1013,1 hPa 0,0 l/m 8,0 km/h (2 Bft) W-SW 247 0 min 0,000 mm 0,0 UV-I 0 W/m 16,1 C 19,9 C 9,7 km/h (2 Bft) 100,00 %
19.08.2019 04:20 24,1 C 20,5 C 20,0 C 21,7 C 66 % 76 % 1013,1 hPa 0,0 l/m 8,0 km/h (2 Bft) W 270 0 min 0,000 mm 0,0 UV-I 0 W/m 16,1 C 19,9 C 11,3 km/h (2 Bft) 95,65 %
19.08.2019 04:19 24,1 C 20,5 C 20,0 C 21,7 C 66 % 76 % 1013,1 hPa 0,0 l/m 8,0 km/h (2 Bft) W-SW 247 0 min 0,000 mm 0,0 UV-I 0 W/m 16,1 C 19,9 C 11,3 km/h (2 Bft) 91,30 %
19.08.2019 04:18 24,1 C 20,4 C 20,0 C 21,7 C 66 % 77 % 1013,1 hPa 0,0 l/m 6,4 km/h (2 Bft) W-SW 247 0 min 0,000 mm 0,0 UV-I 0 W/m 16,2 C 20,4 C 8,0 km/h (2 Bft) 100,00 %
19.08.2019 04:17 24,1 C 20,4 C 20,0 C 21,7 C 66 % 77 % 1013,1 hPa 0,0 l/m 4,8 km/h (1 Bft) W-SW 247 0 min 0,000 mm 0,0 UV-I 0 W/m 16,2 C 20,4 C 6,4 km/h (2 Bft) 95,65 %
19.08.2019 04:16 24,1 C 20,4 C 20,0 C 21,7 C 66 % 77 % 1013,1 hPa 0,0 l/m 4,8 km/h (1 Bft) W-SW 247 0 min 0,000 mm 0,0 UV-I 0 W/m 16,2 C 20,4 C 6,4 km/h (2 Bft) 91,30 %
19.08.2019 04:15 24,1 C 20,4 C 20,0 C 21,7 C 66 % 77 % 1013,1 hPa 0,0 l/m 4,8 km/h (1 Bft) W-SW 247 0 min 0,000 mm 0,0 UV-I 0 W/m 16,2 C 20,4 C 8,0 km/h (2 Bft) 95,65 %
19.08.2019 04:14 24,1 C 20,4 C 20,0 C 21,7 C 66 % 77 % 1012,6 hPa 0,0 l/m 4,8 km/h (1 Bft) W-SW 247 0 min 0,000 mm 0,0 UV-I 0 W/m 16,2 C 20,4 C 8,0 km/h (2 Bft) 95,65 %
19.08.2019 04:13 24,1 C 20,3 C 20,0 C 21,7 C 66 % 77 % 1012,6 hPa 0,0 l/m 6,4 km/h (2 Bft) W-SW 247 0 min 0,000 mm 0,0 UV-I 0 W/m 16,1 C 20,3 C 9,7 km/h (2 Bft) 95,65 %
19.08.2019 04:12 24,1 C 20,3 C 20,0 C 21,7 C 67 % 77 % 1012,6 hPa 0,0 l/m 6,4 km/h (2 Bft) W-SW 247 0 min 0,000 mm 0,0 UV-I 0 W/m 16,1 C 20,3 C 11,3 km/h (2 Bft) 100,00 %
19.08.2019 04:11 24,1 C 20,3 C 20,0 C 21,7 C 66 % 77 % 1012,6 hPa 0,0 l/m 6,4 km/h (2 Bft) W-SW 247 0 min 0,000 mm 0,0 UV-I 0 W/m 16,1 C 20,3 C 8,0 km/h (2 Bft) 95,65 %
19.08.2019 04:10 24,1 C 20,3 C 20,0 C 21,7 C 66 % 77 % 1012,6 hPa 0,0 l/m 6,4 km/h (2 Bft) W-SW 247 0 min 0,000 mm 0,0 UV-I 0 W/m 16,1 C 20,3 C 8,0 km/h (2 Bft) 95,65 %
19.08.2019 04:09 24,1 C 20,3 C 20,0 C 21,7 C 67 % 78 % 1012,6 hPa 0,0 l/m 9,7 km/h (2 Bft) W-SW 247 0 min 0,000 mm 0,0 UV-I 0 W/m 16,3 C 19,1 C 11,3 km/h (2 Bft) 100,00 %
19.08.2019 04:08 24,1 C 20,2 C 20,0 C 21,7 C 67 % 78 % 1012,6 hPa 0,0 l/m 9,7 km/h (2 Bft) W-SW 247 0 min 0,000 mm 0,0 UV-I 0 W/m 16,2 C 19,0 C 14,5 km/h (3 Bft) 91,30 %
19.08.2019 04:07 24,1 C 20,2 C 20,0 C 21,7 C 67 % 78 % 1012,6 hPa 0,0 l/m 6,4 km/h (2 Bft) W-SW 247 0 min 0,000 mm 0,0 UV-I 0 W/m 16,2 C 20,2 C 9,7 km/h (2 Bft) 86,96 %
19.08.2019 04:06 24,1 C 20,2 C 19,4 C 22,2 C 66 % 78 % 1012,6 hPa 0,0 l/m 8,0 km/h (2 Bft) W-SW 247 0 min 0,000 mm 0,0 UV-I 0 W/m 16,2 C 19,6 C 12,9 km/h (3 Bft) 100,00 %
19.08.2019 04:05 24,1 C 20,2 C 19,4 C 22,2 C 66 % 78 % 1012,6 hPa 0,0 l/m 6,4 km/h (2 Bft) W-SW 247 0 min 0,000 mm 0,0 UV-I 0 W/m 16,2 C 20,2 C 9,7 km/h (2 Bft) 95,65 %
19.08.2019 04:04 24,1 C 20,2 C 19,4 C 22,2 C 66 % 78 % 1012,6 hPa 0,0 l/m 6,4 km/h (2 Bft) W 270 0 min 0,000 mm 0,0 UV-I 0 W/m 16,2 C 20,2 C 9,7 km/h (2 Bft) 95,65 %
19.08.2019 04:03 24,1 C 20,1 C 19,4 C 22,2 C 67 % 78 % 1012,6 hPa 0,0 l/m 8,0 km/h (2 Bft) W-SW 247 0 min 0,000 mm 0,0 UV-I 0 W/m 16,1 C 19,5 C 11,3 km/h (2 Bft) 100,00 %
19.08.2019 04:02 24,1 C 20,1 C 19,4 C 22,2 C 66 % 79 % 1012,6 hPa 0,0 l/m 8,0 km/h (2 Bft) W-SW 247 0 min 0,000 mm 0,0 UV-I 0 W/m 16,3 C 19,5 C 11,3 km/h (2 Bft) 95,65 %
19.08.2019 04:01 24,1 C 20,1 C 19,4 C 22,2 C 67 % 79 % 1012,6 hPa 0,0 l/m 9,7 km/h (2 Bft) SW 225 0 min 0,000 mm 0,0 UV-I 0 W/m 16,3 C 18,8 C 14,5 km/h (3 Bft) 95,65 %
19.08.2019 04:00 24,1 C 20,1 C 19,4 C 22,2 C 67 % 79 % 1012,6 hPa 0,0 l/m 9,7 km/h (2 Bft) W-SW 247 0 min 0,025 mm 0,0 UV-I 0 W/m 16,3 C 18,8 C 12,9 km/h (3 Bft) 100,00 %
19.08.2019 03:59 24,1 C 20,1 C 19,4 C 22,2 C 66 % 79 % 1011,9 hPa 0,0 l/m 6,4 km/h (2 Bft) W 270 0 min 0,000 mm 0,0 UV-I 0 W/m 16,3 C 20,1 C 11,3 km/h (2 Bft) 95,65 %
19.08.2019 03:58 24,1 C 20,0 C 19,4 C 22,2 C 67 % 79 % 1011,9 hPa 0,0 l/m 9,7 km/h (2 Bft) W 270 0 min 0,000 mm 0,0 UV-I 0 W/m 16,2 C 18,7 C 14,5 km/h (3 Bft) 91,30 %
19.08.2019 03:57 24,1 C 20,0 C 19,4 C 22,2 C 67 % 79 % 1011,9 hPa 0,0 l/m 8,0 km/h (2 Bft) W 270 0 min 0,000 mm 0,0 UV-I 0 W/m 16,2 C 19,4 C 12,9 km/h (3 Bft) 100,00 %
19.08.2019 03:56 24,1 C 19,9 C 19,4 C 22,2 C 67 % 79 % 1011,9 hPa 0,0 l/m 8,0 km/h (2 Bft) W-NW 292 0 min 0,000 mm 0,0 UV-I 0 W/m 16,1 C 19,2 C 12,9 km/h (3 Bft) 95,65 %
19.08.2019 03:55 24,1 C 19,9 C 19,4 C 22,2 C 67 % 79 % 1011,9 hPa 0,0 l/m 8,0 km/h (2 Bft) W 270 0 min 0,000 mm 0,0 UV-I 0 W/m 16,1 C 19,2 C 11,3 km/h (2 Bft) 95,65 %
19.08.2019 03:54 24,1 C 19,9 C 19,4 C 22,2 C 67 % 79 % 1011,9 hPa 0,0 l/m 6,4 km/h (2 Bft) W 270 0 min 0,000 mm 0,0 UV-I 0 W/m 16,1 C 19,9 C 11,3 km/h (2 Bft) 95,65 %
19.08.2019 03:53 24,1 C 19,9 C 19,4 C 22,2 C 67 % 79 % 1011,9 hPa 0,0 l/m 8,0 km/h (2 Bft) W 270 0 min 0,000 mm 0,0 UV-I 0 W/m 16,1 C 19,2 C 11,3 km/h (2 Bft) 95,65 %
19.08.2019 03:52 24,1 C 19,9 C 19,4 C 22,2 C 67 % 80 % 1011,9 hPa 0,0 l/m 8,0 km/h (2 Bft) W 270 0 min 0,000 mm 0,0 UV-I 0 W/m 16,3 C 19,2 C 11,3 km/h (2 Bft) 95,65 %
19.08.2019 03:51 24,1 C 19,8 C 19,4 C 22,2 C 67 % 80 % 1011,9 hPa 0,0 l/m 6,4 km/h (2 Bft) W 270 0 min 0,000 mm 0,0 UV-I 0 W/m 16,2 C 19,8 C 9,7 km/h (2 Bft) 100,00 %
19.08.2019 03:50 24,1 C 19,8 C 19,4 C 22,2 C 67 % 80 % 1011,9 hPa 0,0 l/m 6,4 km/h (2 Bft) W-SW 247 0 min 0,000 mm 0,0 UV-I 0 W/m 16,2 C 19,8 C 9,7 km/h (2 Bft) 95,65 %
19.08.2019 03:49 24,1 C 19,8 C 19,4 C 22,2 C 67 % 80 % 1011,9 hPa 0,0 l/m 6,4 km/h (2 Bft) W-SW 247 0 min 0,000 mm 0,0 UV-I 0 W/m 16,2 C 19,8 C 9,7 km/h (2 Bft) 95,65 %
19.08.2019 03:48 24,1 C 19,8 C 19,4 C 22,2 C 67 % 80 % 1011,9 hPa 0,0 l/m 6,4 km/h (2 Bft) W-NW 292 0 min 0,000 mm 0,0 UV-I 0 W/m 16,2 C 19,8 C 11,3 km/h (2 Bft) 100,00 %
19.08.2019 03:47 24,1 C 19,7 C 19,4 C 22,2 C 67 % 80 % 1011,9 hPa 0,0 l/m 8,0 km/h (2 Bft) W-SW 247 0 min 0,000 mm 0,0 UV-I 0 W/m 16,1 C 19,0 C 14,5 km/h (3 Bft) 95,65 %
19.08.2019 03:46 24,1 C 19,7 C 18,9 C 22,2 C 67 % 81 % 1011,9 hPa 0,0 l/m 9,7 km/h (2 Bft) W-SW 247 0 min 0,000 mm 0,0 UV-I 0 W/m 16,3 C 18,4 C 12,9 km/h (3 Bft) 95,65 %
19.08.2019 03:45 24,1 C 19,7 C 18,9 C 22,2 C 67 % 81 % 1011,9 hPa 0,0 l/m 8,0 km/h (2 Bft) W 270 0 min 0,000 mm 0,0 UV-I 0 W/m 16,3 C 19,0 C 12,9 km/h (3 Bft) 95,65 %
19.08.2019 03:44 24,1 C 19,7 C 18,9 C 22,2 C 67 % 81 % 1011,6 hPa 0,0 l/m 8,0 km/h (2 Bft) W-SW 247 0 min 0,000 mm 0,0 UV-I 0 W/m 16,3 C 19,0 C 12,9 km/h (3 Bft) 100,00 %
19.08.2019 03:43 24,2 C 19,6 C 18,9 C 22,2 C 67 % 81 % 1011,6 hPa 0,0 l/m 8,0 km/h (2 Bft) W-SW 247 0 min 0,000 mm 0,0 UV-I 0 W/m 16,2 C 18,9 C 11,3 km/h (2 Bft) 91,30 %
19.08.2019 03:42 24,2 C 19,6 C 18,9 C 22,2 C 67 % 81 % 1011,6 hPa 0,0 l/m 4,8 km/h (1 Bft) W-SW 247 0 min 0,000 mm 0,0 UV-I 0 W/m 16,2 C 19,6 C 8,0 km/h (2 Bft) 95,65 %
19.08.2019 03:41 24,2 C 19,6 C 18,9 C 22,2 C 67 % 81 % 1011,6 hPa 0,0 l/m 8,0 km/h (2 Bft) W-SW 247 0 min 0,000 mm 0,0 UV-I 0 W/m 16,2 C 18,9 C 11,3 km/h (2 Bft) 95,65 %
19.08.2019 03:40 24,2 C 19,6 C 18,9 C 22,2 C 67 % 81 % 1011,6 hPa 0,0 l/m 6,4 km/h (2 Bft) W-SW 247 0 min 0,000 mm 0,0 UV-I 0 W/m 16,2 C 19,6 C 9,7 km/h (2 Bft) 91,30 %
19.08.2019 03:39 24,2 C 19,5 C 18,9 C 22,2 C 67 % 81 % 1011,6 hPa 0,0 l/m 9,7 km/h (2 Bft) W-SW 247 0 min 0,000 mm 0,0 UV-I 0 W/m 16,1 C 18,2 C 14,5 km/h (3 Bft) 95,65 %
19.08.2019 03:38 24,2 C 19,5 C 18,9 C 22,2 C 67 % 81 % 1011,6 hPa 0,0 l/m 9,7 km/h (2 Bft) W-SW 247 0 min 0,000 mm 0,0 UV-I 0 W/m 16,1 C 18,2 C 14,5 km/h (3 Bft) 95,65 %
19.08.2019 03:37 24,2 C 19,4 C 18,9 C 22,2 C 67 % 81 % 1011,6 hPa 0,0 l/m 8,0 km/h (2 Bft) W-SW 247 0 min 0,000 mm 0,0 UV-I 0 W/m 16,1 C 18,7 C 11,3 km/h (2 Bft) 95,65 %
19.08.2019 03:36 24,2 C 19,4 C 18,9 C 22,2 C 67 % 81 % 1011,6 hPa 0,0 l/m 9,7 km/h (2 Bft) W-SW 247 0 min 0,000 mm 0,0 UV-I 0 W/m 16,1 C 18,1 C 12,9 km/h (3 Bft) 91,30 %
19.08.2019 03:35 24,2 C 19,4 C 18,9 C 22,2 C 67 % 82 % 1011,6 hPa 0,0 l/m 8,0 km/h (2 Bft) SW 225 0 min 0,000 mm 0,0 UV-I 0 W/m 16,2 C 18,7 C 12,9 km/h (3 Bft) 100,00 %
19.08.2019 03:34 24,2 C 19,4 C 18,3 C 22,2 C 67 % 82 % 1011,6 hPa 0,0 l/m 8,0 km/h (2 Bft) SW 225 0 min 0,000 mm 0,0 UV-I 0 W/m 16,2 C 18,7 C 11,3 km/h (2 Bft) 91,30 %
19.08.2019 03:33 24,2 C 19,4 C 18,3 C 22,2 C 67 % 82 % 1011,6 hPa 0,0 l/m 8,0 km/h (2 Bft) W 270 0 min 0,000 mm 0,0 UV-I 0 W/m 16,2 C 18,7 C 9,7 km/h (2 Bft) 95,65 %
19.08.2019 03:32 24,2 C 19,3 C 18,3 C 22,2 C 67 % 82 % 1011,6 hPa 0,0 l/m 8,0 km/h (2 Bft) W-SW 247 0 min 0,000 mm 0,0 UV-I 0 W/m 16,1 C 18,6 C 11,3 km/h (2 Bft) 95,65 %
19.08.2019 03:31 24,2 C 19,3 C 18,3 C 22,2 C 67 % 82 % 1011,6 hPa 0,0 l/m 8,0 km/h (2 Bft) W-NW 292 0 min 0,000 mm 0,0 UV-I 0 W/m 16,1 C 18,6 C 9,7 km/h (2 Bft) 91,30 %
19.08.2019 03:30 24,2 C 19,3 C 18,3 C 22,2 C 67 % 82 % 1011,6 hPa 0,0 l/m 6,4 km/h (2 Bft) W-SW 247 0 min 0,000 mm 0,0 UV-I 0 W/m 16,1 C 19,3 C 12,9 km/h (3 Bft) 91,30 %
19.08.2019 03:29 24,2 C 19,3 C 17,8 C 22,2 C 67 % 82 % 1011,1 hPa 0,0 l/m 9,7 km/h (2 Bft) W 270 0 min 0,000 mm 0,0 UV-I 0 W/m 16,1 C 18,0 C 12,9 km/h (3 Bft) 100,00 %
19.08.2019 03:28 24,2 C 19,3 C 17,8 C 22,2 C 67 % 82 % 1011,1 hPa 0,0 l/m 8,0 km/h (2 Bft) W 270 0 min 0,000 mm 0,0 UV-I 0 W/m 16,1 C 18,6 C 11,3 km/h (2 Bft) 91,30 %
19.08.2019 03:27 24,2 C 19,3 C 17,8 C 22,2 C 68 % 82 % 1011,1 hPa 0,0 l/m 8,0 km/h (2 Bft) W 270 0 min 0,000 mm 0,0 UV-I 0 W/m 16,1 C 18,6 C 11,3 km/h (2 Bft) 91,30 %
19.08.2019 03:26 24,2 C 19,2 C 17,8 C 22,2 C 67 % 82 % 1011,1 hPa 0,0 l/m 6,4 km/h (2 Bft) W 270 0 min 0,000 mm 0,0 UV-I 0 W/m 16,0 C 19,2 C 8,0 km/h (2 Bft) 86,96 %
19.08.2019 03:25 24,2 C 19,2 C 17,8 C 22,2 C 67 % 82 % 1011,1 hPa 0,0 l/m 6,4 km/h (2 Bft) W 270 0 min 0,000 mm 0,0 UV-I 0 W/m 16,0 C 19,2 C 9,7 km/h (2 Bft) 86,96 %
19.08.2019 03:24 24,2 C 19,2 C 17,8 C 22,2 C 67 % 82 % 1011,1 hPa 0,0 l/m 1,6 km/h (1 Bft) W 270 0 min 0,000 mm 0,0 UV-I 0 W/m 16,0 C 19,2 C 4,8 km/h (1 Bft) 91,30 %
19.08.2019 03:23 24,2 C 19,2 C 17,2 C 22,2 C 67 % 82 % 1011,1 hPa 0,0 l/m 3,2 km/h (1 Bft) W 270 0 min 0,000 mm 0,0 UV-I 0 W/m 16,0 C 19,2 C 4,8 km/h (1 Bft) 95,65 %
19.08.2019 03:22 24,2 C 19,2 C 17,2 C 22,2 C 67 % 82 % 1011,1 hPa 0,0 l/m 3,2 km/h (1 Bft) W 270 0 min 0,000 mm 0,0 UV-I 0 W/m 16,0 C 19,2 C 4,8 km/h (1 Bft) 91,30 %
19.08.2019 03:21 24,2 C 19,2 C 17,2 C 22,2 C 67 % 82 % 1011,1 hPa 0,0 l/m 4,8 km/h (1 Bft) W 270 0 min 0,000 mm 0,0 UV-I 0 W/m 16,0 C 19,2 C 8,0 km/h (2 Bft) 91,30 %
19.08.2019 03:20 24,2 C 19,2 C 17,2 C 22,2 C 67 % 82 % 1011,1 hPa 0,0 l/m 0,0 km/h (0 Bft) W-NW 292 0 min 0,000 mm 0,0 UV-I 0 W/m 16,0 C 19,2 C 1,6 km/h (1 Bft) 95,65 %
19.08.2019 03:19 24,2 C 19,2 C 17,2 C 22,2 C 67 % 82 % 1011,1 hPa 0,0 l/m 0,0 km/h (0 Bft) W-NW 292 0 min 0,000 mm 0,0 UV-I 0 W/m 16,0 C 19,2 C 1,6 km/h (1 Bft) 86,96 %
19.08.2019 03:18 24,2 C 19,2 C 17,2 C 22,2 C 67 % 82 % 1011,1 hPa 0,0 l/m 0,0 km/h (0 Bft) W-NW 292 0 min 0,000 mm 0,0 UV-I 0 W/m 16,0 C 19,2 C 1,6 km/h (1 Bft) 86,96 %
19.08.2019 03:17 24,2 C 19,2 C 17,2 C 22,2 C 67 % 82 % 1011,1 hPa 0,0 l/m 0,0 km/h (0 Bft) W-NW 292 0 min 0,000 mm 0,0 UV-I 0 W/m 16,0 C 19,2 C 1,6 km/h (1 Bft) 95,65 %
19.08.2019 03:16 24,2 C 19,2 C 17,2 C 22,2 C 67 % 82 % 1011,1 hPa 0,0 l/m 0,0 km/h (0 Bft) N 0 0 min 0,000 mm 0,0 UV-I 0 W/m 16,0 C 19,2 C 0,0 km/h (0 Bft) 91,30 %
19.08.2019 03:15 24,2 C 19,2 C 17,2 C 22,2 C 67 % 82 % 1011,1 hPa 0,0 l/m 0,0 km/h (0 Bft) N 0 0 min 0,000 mm 0,0 UV-I 0 W/m 16,0 C 19,2 C 0,0 km/h (0 Bft) 86,96 %
19.08.2019 03:14 24,2 C 19,2 C 17,2 C 22,2 C 67 % 82 % 1010,9 hPa 0,0 l/m 0,0 km/h (0 Bft) N 0 0 min 0,000 mm 0,0 UV-I 0 W/m 16,0 C 19,2 C 0,0 km/h (0 Bft) 91,30 %
19.08.2019 03:13 24,2 C 19,2 C 17,2 C 22,2 C 67 % 82 % 1010,9 hPa 0,0 l/m 0,0 km/h (0 Bft) W-NW 292 0 min 0,000 mm 0,0 UV-I 0 W/m 16,0 C 19,2 C 1,6 km/h (1 Bft) 95,65 %
19.08.2019 03:12 24,2 C 19,2 C 17,2 C 22,2 C 67 % 82 % 1010,9 hPa 0,0 l/m 1,6 km/h (1 Bft) W-NW 292 0 min 0,000 mm 0,0 UV-I 0 W/m 16,0 C 19,2 C 3,2 km/h (1 Bft) 86,96 %
19.08.2019 03:11 24,2 C 19,2 C 17,2 C 22,2 C 67 % 82 % 1010,9 hPa 0,0 l/m 0,0 km/h (0 Bft) W-NW 292 0 min 0,000 mm 0,0 UV-I 0 W/m 16,0 C 19,2 C 1,6 km/h (1 Bft) 91,30 %
19.08.2019 03:10 24,2 C 19,2 C 17,2 C 22,2 C 67 % 82 % 1010,9 hPa 0,0 l/m 0,0 km/h (0 Bft) N 0 0 min 0,000 mm 0,0 UV-I 0 W/m 16,0 C 19,2 C 0,0 km/h (0 Bft) 91,30 %
19.08.2019 03:09 24,2 C 19,2 C 17,2 C 22,2 C 67 % 82 % 1010,9 hPa 0,0 l/m 0,0 km/h (0 Bft) N 0 0 min 0,000 mm 0,0 UV-I 0 W/m 16,0 C 19,2 C 0,0 km/h (0 Bft) 91,30 %
19.08.2019 03:08 24,2 C 19,2 C 17,2 C 22,2 C 67 % 82 % 1010,9 hPa 0,0 l/m 0,0 km/h (0 Bft) W-NW 292 0 min 0,000 mm 0,0 UV-I 0 W/m 16,0 C 19,2 C 1,6 km/h (1 Bft) 95,65 %
19.08.2019 03:07 24,2 C 19,2 C 17,2 C 22,2 C 67 % 82 % 1010,9 hPa 0,0 l/m 0,0 km/h (0 Bft) N 0 0 min 0,000 mm 0,0 UV-I 0 W/m 16,0 C 19,2 C 0,0 km/h (0 Bft) 91,30 %
19.08.2019 03:06 24,2 C 19,2 C 17,2 C 22,2 C 67 % 82 % 1010,9 hPa 0,0 l/m 3,2 km/h (1 Bft) W-NW 292 0 min 0,000 mm 0,0 UV-I 0 W/m 16,0 C 19,2 C 6,4 km/h (2 Bft) 91,30 %
19.08.2019 03:05 24,2 C 19,2 C 17,2 C 22,2 C 67 % 81 % 1010,9 hPa 0,0 l/m 4,8 km/h (1 Bft) W-NW 292 0 min 0,000 mm 0,0 UV-I 0 W/m 15,9 C 19,2 C 6,4 km/h (2 Bft) 95,65 %
19.08.2019 03:04 24,2 C 19,2 C 17,2 C 22,2 C 67 % 81 % 1010,9 hPa 0,0 l/m 1,6 km/h (1 Bft) W-NW 292 0 min 0,000 mm 0,0 UV-I 0 W/m 15,9 C 19,2 C 4,8 km/h (1 Bft) 95,65 %
19.08.2019 03:03 24,2 C 19,3 C 17,2 C 22,2 C 67 % 81 % 1010,9 hPa 0,0 l/m 0,0 km/h (0 Bft) N 0 0 min 0,000 mm 0,0 UV-I 0 W/m 16,0 C 19,3 C 0,0 km/h (0 Bft) 91,30 %
19.08.2019 03:02 24,2 C 19,3 C 17,2 C 22,2 C 67 % 81 % 1010,9 hPa 0,0 l/m 0,0 km/h (0 Bft) N 0 0 min 0,000 mm 0,0 UV-I 0 W/m 16,0 C 19,3 C 0,0 km/h (0 Bft) 95,65 %
19.08.2019 03:01 24,2 C 19,3 C 17,2 C 22,2 C 67 % 81 % 1010,9 hPa 0,0 l/m 0,0 km/h (0 Bft) W-NW 292 0 min 0,000 mm 0,0 UV-I 0 W/m 16,0 C 19,3 C 1,6 km/h (1 Bft) 91,30 %
19.08.2019 03:00 24,2 C 19,3 C 17,2 C 22,2 C 67 % 81 % 1010,9 hPa 0,0 l/m 0,0 km/h (0 Bft) N 0 0 min 0,025 mm 0,0 UV-I 0 W/m 16,0 C 19,3 C 0,0 km/h (0 Bft) 91,30 %
19.08.2019 02:59 24,2 C 19,3 C 17,2 C 22,2 C 67 % 81 % 1010,5 hPa 0,0 l/m 0,0 km/h (0 Bft) N 0 0 min 0,000 mm 0,0 UV-I 0 W/m 16,0 C 19,3 C 0,0 km/h (0 Bft) 95,65 %
19.08.2019 02:58 24,2 C 19,3 C 17,2 C 22,2 C 67 % 81 % 1010,5 hPa 0,0 l/m 0,0 km/h (0 Bft) N 0 0 min 0,000 mm 0,0 UV-I 0 W/m 16,0 C 19,3 C 0,0 km/h (0 Bft) 95,65 %
19.08.2019 02:57 24,2 C 19,2 C 17,2 C 22,2 C 67 % 81 % 1010,5 hPa 0,0 l/m 0,0 km/h (0 Bft) N 0 0 min 0,000 mm 0,0 UV-I 0 W/m 15,9 C 19,2 C 0,0 km/h (0 Bft) 86,96 %
19.08.2019 02:56 24,2 C 19,3 C 17,2 C 22,2 C 67 % 81 % 1010,5 hPa 0,0 l/m 0,0 km/h (0 Bft) N 0 0 min 0,000 mm 0,0 UV-I 0 W/m 16,0 C 19,3 C 0,0 km/h (0 Bft) 95,65 %
19.08.2019 02:55 24,2 C 19,2 C 17,2 C 22,2 C 67 % 81 % 1010,5 hPa 0,0 l/m 0,0 km/h (0 Bft) N 0 0 min 0,000 mm 0,0 UV-I 0 W/m 15,9 C 19,2 C 0,0 km/h (0 Bft) 95,65 %
19.08.2019 02:54 24,2 C 19,2 C 17,2 C 22,2 C 67 % 81 % 1010,5 hPa 0,0 l/m 0,0 km/h (0 Bft) N 0 0 min 0,000 mm 0,0 UV-I 0 W/m 15,9 C 19,2 C 0,0 km/h (0 Bft) 86,96 %
19.08.2019 02:53 24,2 C 19,2 C 17,2 C 22,2 C 67 % 81 % 1010,5 hPa 0,0 l/m 0,0 km/h (0 Bft) N 0 0 min 0,000 mm 0,0 UV-I 0 W/m 15,9 C 19,2 C 0,0 km/h (0 Bft) 91,30 %
19.08.2019 02:52 24,2 C 19,2 C 17,2 C 22,2 C 67 % 81 % 1010,5 hPa 0,0 l/m 0,0 km/h (0 Bft) N 0 0 min 0,000 mm 0,0 UV-I 0 W/m 15,9 C 19,2 C 0,0 km/h (0 Bft) 95,65 %
19.08.2019 02:51 24,2 C 19,2 C 17,2 C 22,2 C 67 % 81 % 1010,5 hPa 0,0 l/m 0,0 km/h (0 Bft) N 0 0 min 0,000 mm 0,0 UV-I 0 W/m 15,9 C 19,2 C 0,0 km/h (0 Bft) 95,65 %
19.08.2019 02:50 24,2 C 19,2 C 17,2 C 22,2 C 67 % 81 % 1010,5 hPa 0,0 l/m 0,0 km/h (0 Bft) W-NW 292 0 min 0,000 mm 0,0 UV-I 0 W/m 15,9 C 19,2 C 1,6 km/h (1 Bft) 91,30 %
19.08.2019 02:49 24,2 C 19,2 C 17,2 C 22,2 C 67 % 81 % 1010,5 hPa 0,0 l/m 1,6 km/h (1 Bft) W-NW 292 0 min 0,000 mm 0,0 UV-I 0 W/m 15,9 C 19,2 C 4,8 km/h (1 Bft) 100,00 %
19.08.2019 02:48 24,2 C 19,2 C 17,2 C 22,2 C 67 % 81 % 1010,5 hPa 0,0 l/m 0,0 km/h (0 Bft) N 0 0 min 0,000 mm 0,0 UV-I 0 W/m 15,9 C 19,2 C 0,0 km/h (0 Bft) 86,96 %
19.08.2019 02:47 24,2 C 19,2 C 17,2 C 22,2 C 67 % 81 % 1010,5 hPa 0,0 l/m 0,0 km/h (0 Bft) N 0 0 min 0,000 mm 0,0 UV-I 0 W/m 15,9 C 19,2 C 0,0 km/h (0 Bft) 91,30 %
19.08.2019 02:46 24,2 C 19,2 C 17,2 C 22,2 C 67 % 81 % 1010,5 hPa 0,0 l/m 0,0 km/h (0 Bft) N 0 0 min 0,000 mm 0,0 UV-I 0 W/m 15,9 C 19,2 C 0,0 km/h (0 Bft) 95,65 %
19.08.2019 02:45 24,2 C 19,2 C 17,2 C 22,2 C 67 % 81 % 1010,5 hPa 0,0 l/m 0,0 km/h (0 Bft) N 0 0 min 0,000 mm 0,0 UV-I 0 W/m 15,9 C 19,2 C 0,0 km/h (0 Bft) 91,30 %
19.08.2019 02:44 24,2 C 19,2 C 17,2 C 22,2 C 67 % 81 % 1010,4 hPa 0,0 l/m 0,0 km/h (0 Bft) N 0 0 min 0,000 mm 0,0 UV-I 0 W/m 15,9 C 19,2 C 0,0 km/h (0 Bft) 91,30 %
19.08.2019 02:43 24,2 C 19,2 C 17,2 C 22,2 C 67 % 81 % 1010,4 hPa 0,0 l/m 0,0 km/h (0 Bft) N 0 0 min 0,000 mm 0,0 UV-I 0 W/m 15,9 C 19,2 C 0,0 km/h (0 Bft) 100,00 %
19.08.2019 02:42 24,2 C 19,2 C 17,2 C 22,2 C 67 % 81 % 1010,4 hPa 0,0 l/m 1,6 km/h (1 Bft) W-NW 292 0 min 0,000 mm 0,0 UV-I 0 W/m 15,9 C 19,2 C 3,2 km/h (1 Bft) 91,30 %
19.08.2019 02:41 24,2 C 19,2 C 17,2 C 22,2 C 67 % 81 % 1010,4 hPa 0,0 l/m 1,6 km/h (1 Bft) W-NW 292 0 min 0,000 mm 0,0 UV-I 0 W/m 15,9 C 19,2 C 4,8 km/h (1 Bft) 95,65 %
19.08.2019 02:40 24,2 C 19,2 C 17,2 C 22,2 C 67 % 81 % 1010,4 hPa 0,0 l/m 1,6 km/h (1 Bft) W-NW 292 0 min 0,000 mm 0,0 UV-I 0 W/m 15,9 C 19,2 C 3,2 km/h (1 Bft) 95,65 %
19.08.2019 02:39 24,2 C 19,2 C 17,2 C 22,2 C 67 % 81 % 1010,4 hPa 0,0 l/m 0,0 km/h (0 Bft) N 0 0 min 0,000 mm 0,0 UV-I 0 W/m 15,9 C 19,2 C 0,0 km/h (0 Bft) 91,30 %
19.08.2019 02:38 24,2 C 19,2 C 17,2 C 22,2 C 68 % 81 % 1010,4 hPa 0,0 l/m 0,0 km/h (0 Bft) W-NW 292 0 min 0,000 mm 0,0 UV-I 0 W/m 15,9 C 19,2 C 1,6 km/h (1 Bft) 95,65 %
19.08.2019 02:37 24,2 C 19,2 C 17,2 C 22,2 C 67 % 81 % 1010,4 hPa 0,0 l/m 0,0 km/h (0 Bft) N 0 0 min 0,000 mm 0,0 UV-I 0 W/m 15,9 C 19,2 C 0,0 km/h (0 Bft) 95,65 %
19.08.2019 02:36 24,2 C 19,2 C 17,2 C 22,2 C 67 % 81 % 1010,4 hPa 0,0 l/m 0,0 km/h (0 Bft) N 0 0 min 0,000 mm 0,0 UV-I 0 W/m 15,9 C 19,2 C 0,0 km/h (0 Bft) 95,65 %
19.08.2019 02:35 24,2 C 19,2 C 17,2 C 22,2 C 67 % 81 % 1010,4 hPa 0,0 l/m 0,0 km/h (0 Bft) W-NW 292 0 min 0,000 mm 0,0 UV-I 0 W/m 15,9 C 19,2 C 1,6 km/h (1 Bft) 91,30 %
19.08.2019 02:34 24,2 C 19,2 C 17,2 C 22,2 C 67 % 81 % 1010,4 hPa 0,0 l/m 0,0 km/h (0 Bft) W-NW 292 0 min 0,000 mm 0,0 UV-I 0 W/m 15,9 C 19,2 C 1,6 km/h (1 Bft) 100,00 %
19.08.2019 02:33 24,2 C 19,2 C 17,2 C 22,2 C 67 % 81 % 1010,4 hPa 0,0 l/m 3,2 km/h (1 Bft) W-NW 292 0 min 0,000 mm 0,0 UV-I 0 W/m 15,9 C 19,2 C 4,8 km/h (1 Bft) 91,30 %
19.08.2019 02:32 24,2 C 19,3 C 17,2 C 22,2 C 67 % 81 % 1010,4 hPa 0,0 l/m 4,8 km/h (1 Bft) W-NW 292 0 min 0,000 mm 0,0 UV-I 0 W/m 16,0 C 19,3 C 6,4 km/h (2 Bft) 91,30 %
19.08.2019 02:31 24,2 C 19,3 C 17,2 C 22,2 C 67 % 81 % 1010,4 hPa 0,0 l/m 0,0 km/h (0 Bft) W-NW 292 0 min 0,000 mm 0,0 UV-I 0 W/m 16,0 C 19,3 C 1,6 km/h (1 Bft) 91,30 %
19.08.2019 02:30 24,2 C 19,3 C 17,2 C 22,2 C 67 % 81 % 1010,4 hPa 0,0 l/m 0,0 km/h (0 Bft) N 0 0 min 0,000 mm 0,0 UV-I 0 W/m 16,0 C 19,3 C 0,0 km/h (0 Bft) 95,65 %
19.08.2019 02:29 24,2 C 19,3 C 17,2 C 22,2 C 67 % 81 % 1010,1 hPa 0,0 l/m 0,0 km/h (0 Bft) N 0 0 min 0,000 mm 0,0 UV-I 0 W/m 16,0 C 19,3 C 0,0 km/h (0 Bft) 91,30 %
19.08.2019 02:28 24,2 C 19,3 C 17,2 C 22,2 C 67 % 81 % 1010,1 hPa 0,0 l/m 0,0 km/h (0 Bft) W-NW 292 0 min 0,000 mm 0,0 UV-I 0 W/m 16,0 C 19,3 C 1,6 km/h (1 Bft) 100,00 %
19.08.2019 02:27 24,2 C 19,3 C 17,2 C 22,2 C 67 % 82 % 1010,1 hPa 0,0 l/m 0,0 km/h (0 Bft) W-NW 292 0 min 0,000 mm 0,0 UV-I 0 W/m 16,1 C 19,3 C 3,2 km/h (1 Bft) 86,96 %
19.08.2019 02:26 24,3 C 19,3 C 17,2 C 22,2 C 67 % 82 % 1010,1 hPa 0,0 l/m 1,6 km/h (1 Bft) W-NW 292 0 min 0,000 mm 0,0 UV-I 0 W/m 16,1 C 19,3 C 4,8 km/h (1 Bft) 86,96 %
19.08.2019 02:25 24,3 C 19,3 C 17,2 C 22,2 C 67 % 82 % 1010,1 hPa 0,0 l/m 1,6 km/h (1 Bft) W-NW 292 0 min 0,000 mm 0,0 UV-I 0 W/m 16,1 C 19,3 C 4,8 km/h (1 Bft) 95,65 %
19.08.2019 02:24 24,3 C 19,3 C 17,2 C 22,2 C 67 % 82 % 1010,1 hPa 0,0 l/m 1,6 km/h (1 Bft) W-NW 292 0 min 0,000 mm 0,0 UV-I 0 W/m 16,1 C 19,3 C 4,8 km/h (1 Bft) 86,96 %
19.08.2019 02:23 24,3 C 19,3 C 17,2 C 22,2 C 67 % 82 % 1010,1 hPa 0,0 l/m 1,6 km/h (1 Bft) W-NW 292 0 min 0,000 mm 0,0 UV-I 0 W/m 16,1 C 19,3 C 4,8 km/h (1 Bft) 95,65 %
19.08.2019 02:22 24,3 C 19,3 C 17,2 C 22,2 C 67 % 82 % 1010,1 hPa 0,0 l/m 1,6 km/h (1 Bft) W-NW 292 0 min 0,000 mm 0,0 UV-I 0 W/m 16,1 C 19,3 C 4,8 km/h (1 Bft) 91,30 %
19.08.2019 02:21 24,3 C 19,3 C 17,2 C 22,2 C 67 % 82 % 1010,1 hPa 0,0 l/m 1,6 km/h (1 Bft) W-NW 292 0 min 0,000 mm 0,0 UV-I 0 W/m 16,1 C 19,3 C 3,2 km/h (1 Bft) 95,65 %
19.08.2019 02:20 24,3 C 19,3 C 17,2 C 22,2 C 67 % 82 % 1010,1 hPa 0,0 l/m 0,0 km/h (0 Bft) W-NW 292 0 min 0,000 mm 0,0 UV-I 0 W/m 16,1 C 19,3 C 3,2 km/h (1 Bft) 91,30 %
19.08.2019 02:19 24,3 C 19,3 C 17,2 C 22,2 C 67 % 82 % 1010,1 hPa 0,0 l/m 0,0 km/h (0 Bft) W-NW 292 0 min 0,000 mm 0,0 UV-I 0 W/m 16,1 C 19,3 C 1,6 km/h (1 Bft) 100,00 %
19.08.2019 02:18 24,3 C 19,4 C 17,2 C 22,2 C 67 % 82 % 1010,1 hPa 0,0 l/m 0,0 km/h (0 Bft) W-NW 292 0 min 0,000 mm 0,0 UV-I 0 W/m 16,2 C 19,4 C 3,2 km/h (1 Bft) 91,30 %
19.08.2019 02:17 24,3 C 19,3 C 17,2 C 22,2 C 67 % 82 % 1010,1 hPa 0,0 l/m 0,0 km/h (0 Bft) W-NW 292 0 min 0,000 mm 0,0 UV-I 0 W/m 16,1 C 19,3 C 3,2 km/h (1 Bft) 95,65 %
19.08.2019 02:16 24,3 C 19,4 C 17,2 C 22,2 C 67 % 82 % 1010,1 hPa 0,0 l/m 0,0 km/h (0 Bft) W-NW 292 0 min 0,000 mm 0,0 UV-I 0 W/m 16,2 C 19,4 C 1,6 km/h (1 Bft) 95,65 %
19.08.2019 02:15 24,3 C 19,4 C 17,2 C 22,2 C 67 % 82 % 1010,1 hPa 0,0 l/m 0,0 km/h (0 Bft) W-NW 292 0 min 0,000 mm 0,0 UV-I 0 W/m 16,2 C 19,4 C 1,6 km/h (1 Bft) 95,65 %
19.08.2019 02:14 24,3 C 19,4 C 17,2 C 22,2 C 67 % 82 % 1009,9 hPa 0,0 l/m 1,6 km/h (1 Bft) W-NW 292 0 min 0,000 mm 0,0 UV-I 0 W/m 16,2 C 19,4 C 4,8 km/h (1 Bft) 91,30 %
19.08.2019 02:13 24,3 C 19,4 C 17,2 C 22,2 C 67 % 82 % 1009,9 hPa 0,0 l/m 1,6 km/h (1 Bft) W-NW 292 0 min 0,000 mm 0,0 UV-I 0 W/m 16,2 C 19,4 C 4,8 km/h (1 Bft) 100,00 %
19.08.2019 02:12 24,3 C 19,4 C 17,2 C 22,2 C 67 % 82 % 1009,9 hPa 0,0 l/m 0,0 km/h (0 Bft) N 0 0 min 0,000 mm 0,0 UV-I 0 W/m 16,2 C 19,4 C 0,0 km/h (0 Bft) 91,30 %
19.08.2019 02:11 24,3 C 19,4 C 17,2 C 22,2 C 67 % 82 % 1009,9 hPa 0,0 l/m 0,0 km/h (0 Bft) N 0 0 min 0,000 mm 0,0 UV-I 0 W/m 16,2 C 19,4 C 0,0 km/h (0 Bft) 91,30 %
19.08.2019 02:10 24,3 C 19,4 C 17,2 C 22,2 C 67 % 82 % 1009,9 hPa 0,0 l/m 0,0 km/h (0 Bft) W-NW 292 0 min 0,000 mm 0,0 UV-I 0 W/m 16,2 C 19,4 C 1,6 km/h (1 Bft) 95,65 %
19.08.2019 02:09 24,3 C 19,4 C 17,2 C 22,2 C 67 % 82 % 1009,9 hPa 0,0 l/m 0,0 km/h (0 Bft) N 0 0 min 0,000 mm 0,0 UV-I 0 W/m 16,2 C 19,4 C 0,0 km/h (0 Bft) 95,65 %
19.08.2019 02:08 24,3 C 19,4 C 17,2 C 22,2 C 67 % 82 % 1009,9 hPa 0,0 l/m 0,0 km/h (0 Bft) N 0 0 min 0,000 mm 0,0 UV-I 0 W/m 16,2 C 19,4 C 0,0 km/h (0 Bft) 91,30 %
19.08.2019 02:07 24,3 C 19,4 C 17,8 C 22,2 C 67 % 82 % 1009,9 hPa 0,0 l/m 0,0 km/h (0 Bft) W-NW 292 0 min 0,000 mm 0,0 UV-I 0 W/m 16,2 C 19,4 C 1,6 km/h (1 Bft) 95,65 %
19.08.2019 02:06 24,3 C 19,4 C 17,8 C 22,2 C 67 % 82 % 1009,9 hPa 0,0 l/m 1,6 km/h (1 Bft) W-NW 292 0 min 0,000 mm 0,0 UV-I 0 W/m 16,2 C 19,4 C 4,8 km/h (1 Bft) 95,65 %
19.08.2019 02:05 24,3 C 19,4 C 17,8 C 22,2 C 67 % 82 % 1009,9 hPa 0,0 l/m 3,2 km/h (1 Bft) W-NW 292 0 min 0,000 mm 0,0 UV-I 0 W/m 16,2 C 19,4 C 6,4 km/h (2 Bft) 91,30 %
19.08.2019 02:04 24,3 C 19,3 C 17,8 C 22,2 C 67 % 82 % 1009,9 hPa 0,0 l/m 6,4 km/h (2 Bft) W-NW 292 0 min 0,000 mm 0,0 UV-I 0 W/m 16,1 C 19,3 C 8,0 km/h (2 Bft) 95,65 %
19.08.2019 02:03 24,3 C 19,4 C 17,8 C 22,2 C 67 % 82 % 1009,9 hPa 0,0 l/m 4,8 km/h (1 Bft) NW 315 0 min 0,000 mm 0,0 UV-I 0 W/m 16,2 C 19,4 C 8,0 km/h (2 Bft) 91,30 %
19.08.2019 02:02 24,3 C 19,4 C 17,2 C 22,2 C 67 % 82 % 1009,9 hPa 0,0 l/m 6,4 km/h (2 Bft) NW 315 0 min 0,000 mm 0,0 UV-I 0 W/m 16,2 C 19,4 C 11,3 km/h (2 Bft) 95,65 %
19.08.2019 02:01 24,3 C 19,4 C 17,2 C 22,2 C 67 % 82 % 1009,9 hPa 0,0 l/m 8,0 km/h (2 Bft) NW 315 0 min 0,000 mm 0,0 UV-I 0 W/m 16,2 C 18,7 C 11,3 km/h (2 Bft) 86,96 %
19.08.2019 02:00 24,3 C 19,4 C 17,2 C 22,2 C 67 % 81 % 1009,9 hPa 0,0 l/m 4,8 km/h (1 Bft) W-NW 292 0 min 0,025 mm 0,0 UV-I 0 W/m 16,1 C 19,4 C 6,4 km/h (2 Bft) 100,00 %
19.08.2019 01:59 24,3 C 19,4 C 17,2 C 22,2 C 67 % 81 % 1009,5 hPa 0,0 l/m 4,8 km/h (1 Bft) W-NW 292 0 min 0,000 mm 0,0 UV-I 0 W/m 16,1 C 19,4 C 6,4 km/h (2 Bft) 86,96 %
19.08.2019 01:58 24,3 C 19,4 C 17,2 C 22,2 C 67 % 81 % 1009,5 hPa 0,0 l/m 4,8 km/h (1 Bft) W-NW 292 0 min 0,000 mm 0,0 UV-I 0 W/m 16,1 C 19,4 C 8,0 km/h (2 Bft) 95,65 %
19.08.2019 01:57 24,3 C 19,4 C 17,2 C 22,2 C 67 % 81 % 1009,5 hPa 0,0 l/m 4,8 km/h (1 Bft) W-NW 292 0 min 0,000 mm 0,0 UV-I 0 W/m 16,1 C 19,4 C 8,0 km/h (2 Bft) 100,00 %
19.08.2019 01:56 24,3 C 19,4 C 17,2 C 22,2 C 67 % 81 % 1009,5 hPa 0,0 l/m 4,8 km/h (1 Bft) W 270 0 min 0,000 mm 0,0 UV-I 0 W/m 16,1 C 19,4 C 6,4 km/h (2 Bft) 95,65 %
19.08.2019 01:55 24,3 C 19,4 C 17,2 C 22,2 C 67 % 81 % 1009,5 hPa 0,0 l/m 4,8 km/h (1 Bft) O-SO 112 0 min 0,000 mm 0,0 UV-I 0 W/m 16,1 C 19,4 C 6,4 km/h (2 Bft) 95,65 %
19.08.2019 01:54 24,3 C 19,4 C 17,2 C 22,2 C 67 % 81 % 1009,5 hPa 0,0 l/m 1,6 km/h (1 Bft) O-SO 112 0 min 0,000 mm 0,0 UV-I 0 W/m 16,1 C 19,4 C 6,4 km/h (2 Bft) 95,65 %
19.08.2019 01:53 24,3 C 19,4 C 17,2 C 22,2 C 67 % 81 % 1009,5 hPa 0,0 l/m 0,0 km/h (0 Bft) O-SO 112 0 min 0,000 mm 0,0 UV-I 0 W/m 16,1 C 19,4 C 1,6 km/h (1 Bft) 95,65 %
19.08.2019 01:52 24,3 C 19,4 C 17,2 C 22,2 C 67 % 81 % 1009,5 hPa 0,0 l/m 0,0 km/h (0 Bft) N 0 0 min 0,000 mm 0,0 UV-I 0 W/m 16,1 C 19,4 C 0,0 km/h (0 Bft) 91,30 %
19.08.2019 01:51 24,3 C 19,4 C 17,2 C 22,2 C 67 % 81 % 1009,5 hPa 0,0 l/m 0,0 km/h (0 Bft) O-SO 112 0 min 0,000 mm 0,0 UV-I 0 W/m 16,1 C 19,4 C 1,6 km/h (1 Bft) 100,00 %
19.08.2019 01:50 24,3 C 19,4 C 17,2 C 22,2 C 67 % 80 % 1009,5 hPa 0,0 l/m 0,0 km/h (0 Bft) O-SO 112 0 min 0,000 mm 0,0 UV-I 0 W/m 15,9 C 19,4 C 3,2 km/h (1 Bft) 91,30 %
19.08.2019 01:49 24,3 C 19,4 C 17,2 C 22,2 C 67 % 80 % 1009,5 hPa 0,0 l/m 1,6 km/h (1 Bft) O-SO 112 0 min 0,000 mm 0,0 UV-I 0 W/m 15,9 C 19,4 C 3,2 km/h (1 Bft) 91,30 %
19.08.2019 01:48 24,3 C 19,4 C 17,2 C 22,2 C 68 % 80 % 1009,5 hPa 0,0 l/m 0,0 km/h (0 Bft) N 0 0 min 0,000 mm 0,0 UV-I 0 W/m 15,9 C 19,4 C 0,0 km/h (0 Bft) 91,30 %
19.08.2019 01:47 24,3 C 19,5 C 17,2 C 22,2 C 67 % 80 % 1009,5 hPa 0,0 l/m 0,0 km/h (0 Bft) O-SO 112 0 min 0,000 mm 0,0 UV-I 0 W/m 16,0 C 19,5 C 1,6 km/h (1 Bft) 95,65 %
19.08.2019 01:46 24,3 C 19,5 C 17,2 C 22,2 C 67 % 80 % 1009,5 hPa 0,0 l/m 0,0 km/h (0 Bft) O-SO 112 0 min 0,000 mm 0,0 UV-I 0 W/m 16,0 C 19,5 C 1,6 km/h (1 Bft) 91,30 %
19.08.2019 01:45 24,3 C 19,5 C 17,2 C 22,2 C 67 % 80 % 1009,5 hPa 0,0 l/m 0,0 km/h (0 Bft) N 0 0 min 0,000 mm 0,0 UV-I 0 W/m 16,0 C 19,5 C 0,0 km/h (0 Bft) 91,30 %
19.08.2019 01:44 24,3 C 19,5 C 17,2 C 22,2 C 66 % 80 % 1009,3 hPa 0,0 l/m 0,0 km/h (0 Bft) O-SO 112 0 min 0,000 mm 0,0 UV-I 0 W/m 16,0 C 19,5 C 1,6 km/h (1 Bft) 95,65 %
19.08.2019 01:43 24,3 C 19,5 C 17,2 C 22,2 C 66 % 80 % 1009,3 hPa 0,0 l/m 0,0 km/h (0 Bft) N 0 0 min 0,000 mm 0,0 UV-I 0 W/m 16,0 C 19,5 C 0,0 km/h (0 Bft) 91,30 %
19.08.2019 01:42 24,3 C 19,6 C 17,2 C 22,2 C 66 % 80 % 1009,3 hPa 0,0 l/m 0,0 km/h (0 Bft) N 0 0 min 0,000 mm 0,0 UV-I 0 W/m 16,1 C 19,6 C 0,0 km/h (0 Bft) 95,65 %
19.08.2019 01:41 24,3 C 19,6 C 17,2 C 22,2 C 66 % 80 % 1009,3 hPa 0,0 l/m 0,0 km/h (0 Bft) N 0 0 min 0,000 mm 0,0 UV-I 0 W/m 16,1 C 19,6 C 0,0 km/h (0 Bft) 91,30 %
19.08.2019 01:40 24,3 C 19,6 C 17,2 C 22,2 C 66 % 80 % 1009,3 hPa 0,0 l/m 0,0 km/h (0 Bft) N 0 0 min 0,000 mm 0,0 UV-I 0 W/m 16,1 C 19,6 C 0,0 km/h (0 Bft) 95,65 %
19.08.2019 01:39 24,3 C 19,6 C 17,2 C 22,2 C 66 % 80 % 1009,3 hPa 0,0 l/m 0,0 km/h (0 Bft) N 0 0 min 0,000 mm 0,0 UV-I 0 W/m 16,1 C 19,6 C 0,0 km/h (0 Bft) 95,65 %
19.08.2019 01:38 24,3 C 19,6 C 17,2 C 22,2 C 66 % 80 % 1009,3 hPa 0,0 l/m 0,0 km/h (0 Bft) N 0 0 min 0,000 mm 0,0 UV-I 0 W/m 16,1 C 19,6 C 0,0 km/h (0 Bft) 95,65 %
19.08.2019 01:37 24,3 C 19,6 C 17,2 C 22,2 C 66 % 80 % 1009,3 hPa 0,0 l/m 0,0 km/h (0 Bft) N 0 0 min 0,000 mm 0,0 UV-I 0 W/m 16,1 C 19,6 C 0,0 km/h (0 Bft) 82,61 %
19.08.2019 01:36 24,3 C 19,6 C 17,2 C 22,2 C 66 % 80 % 1009,3 hPa 0,0 l/m 0,0 km/h (0 Bft) N 0 0 min 0,000 mm 0,0 UV-I 0 W/m 16,1 C 19,6 C 0,0 km/h (0 Bft) 100,00 %
19.08.2019 01:35 24,3 C 19,6 C 17,2 C 22,2 C 66 % 80 % 1009,3 hPa 0,0 l/m 0,0 km/h (0 Bft) N 0 0 min 0,000 mm 0,0 UV-I 0 W/m 16,1 C 19,6 C 0,0 km/h (0 Bft) 91,30 %
19.08.2019 01:34 24,3 C 19,6 C 17,2 C 22,2 C 66 % 80 % 1009,3 hPa 0,0 l/m 0,0 km/h (0 Bft) N 0 0 min 0,000 mm 0,0 UV-I 0 W/m 16,1 C 19,6 C 0,0 km/h (0 Bft) 86,96 %
19.08.2019 01:33 24,3 C 19,6 C 17,2 C 22,2 C 66 % 80 % 1009,3 hPa 0,0 l/m 0,0 km/h (0 Bft) N 0 0 min 0,000 mm 0,0 UV-I 0 W/m 16,1 C 19,6 C 0,0 km/h (0 Bft) 95,65 %
19.08.2019 01:32 24,3 C 19,6 C 17,2 C 22,2 C 67 % 80 % 1009,3 hPa 0,0 l/m 0,0 km/h (0 Bft) N 0 0 min 0,000 mm 0,0 UV-I 0 W/m 16,1 C 19,6 C 0,0 km/h (0 Bft) 91,30 %
19.08.2019 01:31 24,3 C 19,7 C 17,2 C 22,2 C 67 % 80 % 1009,3 hPa 0,0 l/m 0,0 km/h (0 Bft) N 0 0 min 0,000 mm 0,0 UV-I 0 W/m 16,1 C 19,7 C 0,0 km/h (0 Bft) 95,65 %
19.08.2019 01:30 24,3 C 19,7 C 17,2 C 22,2 C 66 % 79 % 1009,3 hPa 0,0 l/m 0,0 km/h (0 Bft) N 0 0 min 0,000 mm 0,0 UV-I 0 W/m 16,0 C 19,7 C 0,0 km/h (0 Bft) 95,65 %
19.08.2019 01:29 24,3 C 19,7 C 17,2 C 22,2 C 66 % 80 % 1009,3 hPa 0,0 l/m 0,0 km/h (0 Bft) N 0 0 min 0,000 mm 0,0 UV-I 0 W/m 16,1 C 19,7 C 0,0 km/h (0 Bft) 95,65 %
19.08.2019 01:28 24,3 C 19,7 C 17,2 C 22,2 C 66 % 80 % 1009,3 hPa 0,0 l/m 0,0 km/h (0 Bft) N 0 0 min 0,000 mm 0,0 UV-I 0 W/m 16,1 C 19,7 C 0,0 km/h (0 Bft) 86,96 %
19.08.2019 01:27 24,3 C 19,7 C 17,2 C 22,2 C 66 % 80 % 1009,3 hPa 0,0 l/m 0,0 km/h (0 Bft) N 0 0 min 0,000 mm 0,0 UV-I 0 W/m 16,1 C 19,7 C 0,0 km/h (0 Bft) 100,00 %
19.08.2019 01:26 24,3 C 19,7 C 17,2 C 22,2 C 66 % 80 % 1009,3 hPa 0,0 l/m 0,0 km/h (0 Bft) O-SO 112 0 min 0,000 mm 0,0 UV-I 0 W/m 16,1 C 19,7 C 1,6 km/h (1 Bft) 91,30 %
19.08.2019 01:25 24,3 C 19,7 C 17,2 C 22,8 C 66 % 80 % 1009,3 hPa 0,0 l/m 0,0 km/h (0 Bft) N 0 0 min 0,000 mm 0,0 UV-I 0 W/m 16,1 C 19,7 C 0,0 km/h (0 Bft) 95,65 %
19.08.2019 01:24 24,3 C 19,7 C 17,2 C 22,8 C 66 % 79 % 1009,3 hPa 0,0 l/m 0,0 km/h (0 Bft) N 0 0 min 0,000 mm 0,0 UV-I 0 W/m 16,0 C 19,7 C 0,0 km/h (0 Bft) 91,30 %
19.08.2019 01:23 24,3 C 19,8 C 17,2 C 22,8 C 66 % 79 % 1009,3 hPa 0,0 l/m 0,0 km/h (0 Bft) N 0 0 min 0,000 mm 0,0 UV-I 0 W/m 16,0 C 19,8 C 0,0 km/h (0 Bft) 86,96 %
19.08.2019 01:22 24,3 C 19,8 C 17,2 C 22,8 C 66 % 79 % 1009,3 hPa 0,0 l/m 0,0 km/h (0 Bft) N 0 0 min 0,000 mm 0,0 UV-I 0 W/m 16,0 C 19,8 C 0,0 km/h (0 Bft) 95,65 %
19.08.2019 01:21 24,3 C 19,8 C 17,2 C 22,8 C 66 % 79 % 1009,3 hPa 0,0 l/m 0,0 km/h (0 Bft) O-SO 112 0 min 0,000 mm 0,0 UV-I 0 W/m 16,0 C 19,8 C 1,6 km/h (1 Bft) 100,00 %
19.08.2019 01:20 24,3 C 19,8 C 17,2 C 22,8 C 66 % 79 % 1009,3 hPa 0,0 l/m 0,0 km/h (0 Bft) N 0 0 min 0,000 mm 0,0 UV-I 0 W/m 16,0 C 19,8 C 0,0 km/h (0 Bft) 91,30 %
19.08.2019 01:19 24,3 C 19,8 C 17,2 C 22,8 C 66 % 79 % 1009,3 hPa 0,0 l/m 0,0 km/h (0 Bft) N 0 0 min 0,000 mm 0,0 UV-I 0 W/m 16,0 C 19,8 C 0,0 km/h (0 Bft) 95,65 %
19.08.2019 01:18 24,3 C 19,8 C 17,2 C 22,8 C 66 % 79 % 1009,3 hPa 0,0 l/m 0,0 km/h (0 Bft) N 0 0 min 0,000 mm 0,0 UV-I 0 W/m 16,0 C 19,8 C 0,0 km/h (0 Bft) 95,65 %
19.08.2019 01:17 24,3 C 19,9 C 17,2 C 22,8 C 66 % 79 % 1009,3 hPa 0,0 l/m 0,0 km/h (0 Bft) N 0 0 min 0,000 mm 0,0 UV-I 0 W/m 16,1 C 19,9 C 0,0 km/h (0 Bft) 91,30 %
19.08.2019 01:16 24,3 C 19,9 C 17,2 C 22,8 C 66 % 78 % 1009,3 hPa 0,0 l/m 0,0 km/h (0 Bft) N 0 0 min 0,000 mm 0,0 UV-I 0 W/m 15,9 C 19,9 C 0,0 km/h (0 Bft) 95,65 %
19.08.2019 01:15 24,3 C 19,9 C 17,2 C 22,8 C 66 % 78 % 1009,3 hPa 0,0 l/m 0,0 km/h (0 Bft) N 0 0 min 0,000 mm 0,0 UV-I 0 W/m 15,9 C 19,9 C 0,0 km/h (0 Bft) 95,65 %
19.08.2019 01:14 24,3 C 19,9 C 17,2 C 22,8 C 67 % 78 % 1009,1 hPa 0,0 l/m 0,0 km/h (0 Bft) N 0 0 min 0,000 mm 0,0 UV-I 0 W/m 15,9 C 19,9 C 0,0 km/h (0 Bft) 100,00 %
19.08.2019 01:13 24,3 C 19,9 C 17,2 C 22,8 C 66 % 78 % 1009,1 hPa 0,0 l/m 0,0 km/h (0 Bft) N 0 0 min 0,000 mm 0,0 UV-I 0 W/m 15,9 C 19,9 C 0,0 km/h (0 Bft) 95,65 %
19.08.2019 01:12 24,3 C 19,9 C 17,2 C 22,8 C 67 % 78 % 1009,1 hPa 0,0 l/m 0,0 km/h (0 Bft) N 0 0 min 0,000 mm 0,0 UV-I 0 W/m 15,9 C 19,9 C 0,0 km/h (0 Bft) 95,65 %
19.08.2019 01:11 24,3 C 19,9 C 17,2 C 22,8 C 66 % 78 % 1009,1 hPa 0,0 l/m 0,0 km/h (0 Bft) N 0 0 min 0,000 mm 0,0 UV-I 0 W/m 15,9 C 19,9 C 0,0 km/h (0 Bft) 95,65 %
19.08.2019 01:10 24,3 C 19,9 C 17,2 C 22,8 C 66 % 78 % 1009,1 hPa 0,0 l/m 0,0 km/h (0 Bft) N 0 0 min 0,000 mm 0,0 UV-I 0 W/m 15,9 C 19,9 C 0,0 km/h (0 Bft) 95,65 %
19.08.2019 01:09 24,3 C 19,9 C 17,2 C 22,8 C 66 % 78 % 1009,1 hPa 0,0 l/m 0,0 km/h (0 Bft) N 0 0 min 0,000 mm 0,0 UV-I 0 W/m 15,9 C 19,9 C 0,0 km/h (0 Bft) 91,30 %
19.08.2019 01:08 24,3 C 19,9 C 17,2 C 22,8 C 66 % 77 % 1009,1 hPa 0,0 l/m 0,0 km/h (0 Bft) N 0 0 min 0,000 mm 0,0 UV-I 0 W/m 15,7 C 19,9 C 0,0 km/h (0 Bft) 100,00 %
19.08.2019 01:07 24,3 C 20,0 C 17,2 C 22,8 C 66 % 77 % 1009,1 hPa 0,0 l/m 0,0 km/h (0 Bft) N 0 0 min 0,000 mm 0,0 UV-I 0 W/m 15,8 C 20,0 C 0,0 km/h (0 Bft) 95,65 %
19.08.2019 01:06 24,3 C 20,0 C 17,2 C 22,8 C 66 % 77 % 1009,1 hPa 0,0 l/m 0,0 km/h (0 Bft) N 0 0 min 0,000 mm 0,0 UV-I 0 W/m 15,8 C 20,0 C 0,0 km/h (0 Bft) 95,65 %
19.08.2019 01:05 24,3 C 20,0 C 17,2 C 22,8 C 66 % 77 % 1009,1 hPa 0,0 l/m 0,0 km/h (0 Bft) N 0 0 min 0,000 mm 0,0 UV-I 0 W/m 15,8 C 20,0 C 0,0 km/h (0 Bft) 100,00 %
19.08.2019 01:04 24,3 C 20,0 C 17,2 C 22,8 C 67 % 77 % 1009,1 hPa 0,0 l/m 0,0 km/h (0 Bft) N 0 0 min 0,000 mm 0,0 UV-I 0 W/m 15,8 C 20,0 C 0,0 km/h (0 Bft) 95,65 %
19.08.2019 01:03 24,3 C 20,0 C 17,2 C 22,8 C 66 % 77 % 1009,1 hPa 0,0 l/m 0,0 km/h (0 Bft) N 0 0 min 0,000 mm 0,0 UV-I 0 W/m 15,8 C 20,0 C 0,0 km/h (0 Bft) 91,30 %
19.08.2019 01:02 24,3 C 20,1 C 17,2 C 22,8 C 66 % 77 % 1009,1 hPa 0,0 l/m 0,0 km/h (0 Bft) N 0 0 min 0,000 mm 0,0 UV-I 0 W/m 15,9 C 20,1 C 0,0 km/h (0 Bft) 100,00 %
19.08.2019 01:01 24,3 C 20,1 C 17,2 C 22,8 C 66 % 78 % 1009,1 hPa 0,0 l/m 0,0 km/h (0 Bft) N 0 0 min 0,000 mm 0,0 UV-I 0 W/m 16,1 C 20,1 C 0,0 km/h (0 Bft) 95,65 %
19.08.2019 01:00 24,3 C 20,1 C 17,2 C 22,8 C 67 % 78 % 1009,1 hPa 0,0 l/m 0,0 km/h (0 Bft) N 0 0 min 0,025 mm 0,0 UV-I 0 W/m 16,1 C 20,1 C 0,0 km/h (0 Bft) 91,30 %
19.08.2019 00:59 24,3 C 20,1 C 17,2 C 22,8 C 67 % 77 % 1009,3 hPa 0,0 l/m 0,0 km/h (0 Bft) O-SO 112 0 min 0,000 mm 0,0 UV-I 0 W/m 15,9 C 20,1 C 1,6 km/h (1 Bft) 100,00 %
19.08.2019 00:58 24,3 C 20,1 C 17,2 C 22,8 C 67 % 77 % 1009,3 hPa 0,0 l/m 0,0 km/h (0 Bft) N 0 0 min 0,000 mm 0,0 UV-I 0 W/m 15,9 C 20,1 C 0,0 km/h (0 Bft) 95,65 %
19.08.2019 00:57 24,3 C 20,1 C 17,2 C 22,8 C 67 % 77 % 1009,3 hPa 0,0 l/m 0,0 km/h (0 Bft) N 0 0 min 0,000 mm 0,0 UV-I 0 W/m 15,9 C 20,1 C 0,0 km/h (0 Bft) 95,65 %
19.08.2019 00:56 24,3 C 20,1 C 17,8 C 22,8 C 66 % 77 % 1009,3 hPa 0,0 l/m 0,0 km/h (0 Bft) O-SO 112 0 min 0,000 mm 0,0 UV-I 0 W/m 15,9 C 20,1 C 1,6 km/h (1 Bft) 100,00 %
19.08.2019 00:55 24,3 C 20,1 C 17,8 C 22,8 C 66 % 77 % 1009,3 hPa 0,0 l/m 0,0 km/h (0 Bft) N 0 0 min 0,000 mm 0,0 UV-I 0 W/m 15,9 C 20,1 C 0,0 km/h (0 Bft) 91,30 %
19.08.2019 00:54 24,3 C 20,1 C 17,8 C 22,8 C 66 % 77 % 1009,3 hPa 0,0 l/m 0,0 km/h (0 Bft) O-SO 112 0 min 0,000 mm 0,0 UV-I 0 W/m 15,9 C 20,1 C 1,6 km/h (1 Bft) 95,65 %
19.08.2019 00:53 24,3 C 20,1 C 17,8 C 22,8 C 66 % 77 % 1009,3 hPa 0,0 l/m 0,0 km/h (0 Bft) N 0 0 min 0,000 mm 0,0 UV-I 0 W/m 15,9 C 20,1 C 0,0 km/h (0 Bft) 95,65 %
19.08.2019 00:52 24,3 C 20,1 C 17,8 C 22,8 C 66 % 77 % 1009,3 hPa 0,0 l/m 0,0 km/h (0 Bft) O-SO 112 0 min 0,000 mm 0,0 UV-I 0 W/m 15,9 C 20,1 C 1,6 km/h (1 Bft) 95,65 %
19.08.2019 00:51 24,3 C 20,1 C 17,8 C 22,8 C 66 % 77 % 1009,3 hPa 0,0 l/m 0,0 km/h (0 Bft) O-SO 112 0 min 0,000 mm 0,0 UV-I 0 W/m 15,9 C 20,1 C 1,6 km/h (1 Bft) 95,65 %
19.08.2019 00:50 24,3 C 20,2 C 17,8 C 22,8 C 67 % 77 % 1009,3 hPa 0,0 l/m 1,6 km/h (1 Bft) O-SO 112 0 min 0,000 mm 0,0 UV-I 0 W/m 16,0 C 20,2 C 4,8 km/h (1 Bft) 95,65 %
19.08.2019 00:49 24,3 C 20,2 C 17,8 C 22,8 C 67 % 77 % 1009,3 hPa 0,0 l/m 1,6 km/h (1 Bft) O-SO 112 0 min 0,000 mm 0,0 UV-I 0 W/m 16,0 C 20,2 C 3,2 km/h (1 Bft) 91,30 %
19.08.2019 00:48 24,3 C 20,2 C 17,8 C 22,8 C 67 % 77 % 1009,3 hPa 0,0 l/m 0,0 km/h (0 Bft) O-SO 112 0 min 0,000 mm 0,0 UV-I 0 W/m 16,0 C 20,2 C 3,2 km/h (1 Bft) 95,65 %
19.08.2019 00:47 24,3 C 20,2 C 17,8 C 22,8 C 67 % 77 % 1009,3 hPa 0,0 l/m 0,0 km/h (0 Bft) O-SO 112 0 min 0,000 mm 0,0 UV-I 0 W/m 16,0 C 20,2 C 3,2 km/h (1 Bft) 95,65 %
19.08.2019 00:46 24,3 C 20,2 C 17,8 C 22,8 C 67 % 77 % 1009,3 hPa 0,0 l/m 1,6 km/h (1 Bft) O-SO 112 0 min 0,000 mm 0,0 UV-I 0 W/m 16,0 C 20,2 C 4,8 km/h (1 Bft) 95,65 %
19.08.2019 00:45 24,3 C 20,2 C 17,8 C 22,8 C 67 % 77 % 1009,3 hPa 0,0 l/m 0,0 km/h (0 Bft) N 360 0 min 0,000 mm 0,0 UV-I 0 W/m 16,0 C 20,2 C 1,6 km/h (1 Bft) 95,65 %
19.08.2019 00:44 24,3 C 20,2 C 17,8 C 22,8 C 67 % 77 % 1009,3 hPa 0,0 l/m 0,0 km/h (0 Bft) N 0 0 min 0,000 mm 0,0 UV-I 0 W/m 16,0 C 20,2 C 0,0 km/h (0 Bft) 100,00 %
19.08.2019 00:43 24,3 C 20,2 C 17,8 C 22,8 C 67 % 77 % 1009,3 hPa 0,0 l/m 0,0 km/h (0 Bft) N 0 0 min 0,000 mm 0,0 UV-I 0 W/m 16,0 C 20,2 C 0,0 km/h (0 Bft) 95,65 %
19.08.2019 00:42 24,3 C 20,2 C 17,8 C 22,8 C 67 % 77 % 1009,3 hPa 0,0 l/m 0,0 km/h (0 Bft) N 0 0 min 0,000 mm 0,0 UV-I 0 W/m 16,0 C 20,2 C 0,0 km/h (0 Bft) 95,65 %
19.08.2019 00:41 24,3 C 20,3 C 17,8 C 22,8 C 67 % 77 % 1009,3 hPa 0,0 l/m 0,0 km/h (0 Bft) N 360 0 min 0,000 mm 0,0 UV-I 0 W/m 16,1 C 20,3 C 1,6 km/h (1 Bft) 100,00 %
19.08.2019 00:40 24,3 C 20,3 C 17,8 C 22,8 C 67 % 77 % 1009,3 hPa 0,0 l/m 0,0 km/h (0 Bft) N 0 0 min 0,000 mm 0,0 UV-I 0 W/m 16,1 C 20,3 C 0,0 km/h (0 Bft) 95,65 %
19.08.2019 00:39 24,3 C 20,3 C 17,8 C 22,8 C 67 % 77 % 1009,3 hPa 0,0 l/m 0,0 km/h (0 Bft) N 0 0 min 0,000 mm 0,0 UV-I 0 W/m 16,1 C 20,3 C 0,0 km/h (0 Bft) 95,65 %
19.08.2019 00:38 24,3 C 20,3 C 17,8 C 22,8 C 67 % 76 % 1009,3 hPa 0,0 l/m 0,0 km/h (0 Bft) N 0 0 min 0,000 mm 0,0 UV-I 0 W/m 15,9 C 20,3 C 0,0 km/h (0 Bft) 95,65 %
19.08.2019 00:37 24,3 C 20,3 C 17,8 C 22,8 C 67 % 76 % 1009,3 hPa 0,0 l/m 0,0 km/h (0 Bft) N 0 0 min 0,000 mm 0,0 UV-I 0 W/m 15,9 C 20,3 C 0,0 km/h (0 Bft) 91,30 %
19.08.2019 00:36 24,3 C 20,3 C 17,8 C 22,8 C 67 % 76 % 1009,3 hPa 0,0 l/m 0,0 km/h (0 Bft) N 0 0 min 0,000 mm 0,0 UV-I 0 W/m 15,9 C 20,3 C 0,0 km/h (0 Bft) 91,30 %
19.08.2019 00:35 24,3 C 20,3 C 17,8 C 22,8 C 67 % 76 % 1009,3 hPa 0,0 l/m 0,0 km/h (0 Bft) N 0 0 min 0,000 mm 0,0 UV-I 0 W/m 15,9 C 20,3 C 0,0 km/h (0 Bft) 100,00 %
19.08.2019 00:34 24,3 C 20,3 C 18,3 C 22,8 C 66 % 76 % 1009,3 hPa 0,0 l/m 0,0 km/h (0 Bft) N 0 0 min 0,000 mm 0,0 UV-I 0 W/m 15,9 C 20,3 C 0,0 km/h (0 Bft) 95,65 %
19.08.2019 00:33 24,3 C 20,3 C 17,8 C 22,8 C 66 % 76 % 1009,3 hPa 0,0 l/m 0,0 km/h (0 Bft) N 0 0 min 0,000 mm 0,0 UV-I 0 W/m 15,9 C 20,3 C 0,0 km/h (0 Bft) 95,65 %
19.08.2019 00:32 24,3 C 20,3 C 18,3 C 22,8 C 67 % 76 % 1009,3 hPa 0,0 l/m 0,0 km/h (0 Bft) N 0 0 min 0,000 mm 0,0 UV-I 0 W/m 15,9 C 20,3 C 0,0 km/h (0 Bft) 100,00 %
19.08.2019 00:31 24,3 C 20,3 C 18,3 C 22,8 C 67 % 76 % 1009,3 hPa 0,0 l/m 0,0 km/h (0 Bft) N 0 0 min 0,000 mm 0,0 UV-I 0 W/m 15,9 C 20,3 C 0,0 km/h (0 Bft) 95,65 %
19.08.2019 00:30 24,3 C 20,3 C 18,3 C 22,8 C 67 % 76 % 1009,3 hPa 0,0 l/m 0,0 km/h (0 Bft) N 0 0 min 0,000 mm 0,0 UV-I 0 W/m 15,9 C 20,3 C 0,0 km/h (0 Bft) 95,65 %
19.08.2019 00:29 24,3 C 20,3 C 18,3 C 22,8 C 67 % 76 % 1009,8 hPa 0,0 l/m 0,0 km/h (0 Bft) N 0 0 min 0,000 mm 0,0 UV-I 0 W/m 15,9 C 20,3 C 0,0 km/h (0 Bft) 100,00 %
19.08.2019 00:28 24,3 C 20,3 C 18,3 C 22,8 C 67 % 76 % 1009,8 hPa 0,0 l/m 0,0 km/h (0 Bft) N 0 0 min 0,000 mm 0,0 UV-I 0 W/m 15,9 C 20,3 C 0,0 km/h (0 Bft) 95,65 %
19.08.2019 00:27 24,3 C 20,3 C 18,3 C 22,8 C 67 % 76 % 1009,8 hPa 0,0 l/m 0,0 km/h (0 Bft) N 0 0 min 0,000 mm 0,0 UV-I 0 W/m 15,9 C 20,3 C 0,0 km/h (0 Bft) 91,30 %
19.08.2019 00:26 24,3 C 20,3 C 18,3 C 22,8 C 67 % 77 % 1009,8 hPa 0,0 l/m 0,0 km/h (0 Bft) N 0 0 min 0,000 mm 0,0 UV-I 0 W/m 16,1 C 20,3 C 0,0 km/h (0 Bft) 95,65 %
19.08.2019 00:25 24,3 C 20,3 C 18,3 C 22,8 C 67 % 77 % 1009,8 hPa 0,0 l/m 0,0 km/h (0 Bft) N 0 0 min 0,000 mm 0,0 UV-I 0 W/m 16,1 C 20,3 C 0,0 km/h (0 Bft) 100,00 %
19.08.2019 00:24 24,3 C 20,3 C 18,3 C 22,8 C 67 % 77 % 1009,8 hPa 0,0 l/m 0,0 km/h (0 Bft) N 0 0 min 0,000 mm 0,0 UV-I 0 W/m 16,1 C 20,3 C 0,0 km/h (0 Bft) 95,65 %
19.08.2019 00:23 24,3 C 20,3 C 18,3 C 22,8 C 67 % 77 % 1009,8 hPa 0,0 l/m 0,0 km/h (0 Bft) N 0 0 min 0,000 mm 0,0 UV-I 0 W/m 16,1 C 20,3 C 0,0 km/h (0 Bft) 86,96 %
19.08.2019 00:22 24,3 C 20,3 C 18,3 C 22,8 C 67 % 77 % 1009,8 hPa 0,0 l/m 0,0 km/h (0 Bft) N 0 0 min 0,000 mm 0,0 UV-I 0 W/m 16,1 C 20,3 C 0,0 km/h (0 Bft) 95,65 %
19.08.2019 00:21 24,3 C 20,3 C 18,3 C 22,8 C 67 % 76 % 1009,8 hPa 0,0 l/m 0,0 km/h (0 Bft) N 0 0 min 0,000 mm 0,0 UV-I 0 W/m 15,9 C 20,3 C 0,0 km/h (0 Bft) 95,65 %
19.08.2019 00:20 24,3 C 20,3 C 18,3 C 22,8 C 67 % 76 % 1009,8 hPa 0,0 l/m 0,0 km/h (0 Bft) N 0 0 min 0,000 mm 0,0 UV-I 0 W/m 15,9 C 20,3 C 0,0 km/h (0 Bft) 95,65 %
19.08.2019 00:19 24,3 C 20,3 C 18,3 C 22,8 C 67 % 76 % 1009,8 hPa 0,0 l/m 0,0 km/h (0 Bft) N 0 0 min 0,000 mm 0,0 UV-I 0 W/m 15,9 C 20,3 C 0,0 km/h (0 Bft) 100,00 %
19.08.2019 00:18 24,3 C 20,3 C 18,3 C 22,8 C 67 % 76 % 1009,8 hPa 0,0 l/m 0,0 km/h (0 Bft) N 0 0 min 0,000 mm 0,0 UV-I 0 W/m 15,9 C 20,3 C 0,0 km/h (0 Bft) 91,30 %
19.08.2019 00:17 24,3 C 20,3 C 18,3 C 22,8 C 67 % 77 % 1009,8 hPa 0,0 l/m 0,0 km/h (0 Bft) N 0 0 min 0,000 mm 0,0 UV-I 0 W/m 16,1 C 20,3 C 0,0 km/h (0 Bft) 95,65 %
19.08.2019 00:16 24,3 C 20,3 C 18,3 C 22,8 C 67 % 76 % 1009,8 hPa 0,0 l/m 0,0 km/h (0 Bft) N 0 0 min 0,000 mm 0,0 UV-I 0 W/m 15,9 C 20,3 C 0,0 km/h (0 Bft) 100,00 %
19.08.2019 00:15 24,3 C 20,3 C 18,3 C 22,8 C 67 % 76 % 1009,8 hPa 0,0 l/m 0,0 km/h (0 Bft) N 0 0 min 0,000 mm 0,0 UV-I 0 W/m 15,9 C 20,3 C 0,0 km/h (0 Bft) 95,65 %
19.08.2019 00:14 24,3 C 20,3 C 18,3 C 22,8 C 67 % 76 % 1009,9 hPa 0,0 l/m 0,0 km/h (0 Bft) N 0 0 min 0,000 mm 0,0 UV-I 0 W/m 15,9 C 20,3 C 0,0 km/h (0 Bft) 95,65 %
19.08.2019 00:13 24,3 C 20,3 C 18,3 C 22,8 C 67 % 76 % 1009,9 hPa 0,0 l/m 0,0 km/h (0 Bft) N 0 0 min 0,000 mm 0,0 UV-I 0 W/m 15,9 C 20,3 C 0,0 km/h (0 Bft) 100,00 %
19.08.2019 00:12 24,3 C 20,3 C 18,3 C 22,8 C 67 % 76 % 1009,9 hPa 0,0 l/m 0,0 km/h (0 Bft) N 0 0 min 0,000 mm 0,0 UV-I 0 W/m 15,9 C 20,3 C 0,0 km/h (0 Bft) 91,30 %
19.08.2019 00:11 24,3 C 20,3 C 18,3 C 22,8 C 67 % 76 % 1009,9 hPa 0,0 l/m 0,0 km/h (0 Bft) N 0 0 min 0,000 mm 0,0 UV-I 0 W/m 15,9 C 20,3 C 0,0 km/h (0 Bft) 91,30 %
19.08.2019 00:10 24,3 C 20,3 C 18,3 C 22,8 C 68 % 77 % 1009,9 hPa 0,0 l/m 0,0 km/h (0 Bft) N 360 0 min 0,000 mm 0,0 UV-I 0 W/m 16,1 C 20,3 C 1,6 km/h (1 Bft) 95,65 %
19.08.2019 00:09 24,3 C 20,3 C 18,3 C 22,8 C 67 % 77 % 1009,9 hPa 0,0 l/m 0,0 km/h (0 Bft) N 360 0 min 0,000 mm 0,0 UV-I 0 W/m 16,1 C 20,3 C 3,2 km/h (1 Bft) 95,65 %
19.08.2019 00:08 24,3 C 20,3 C 18,3 C 22,8 C 67 % 77 % 1009,9 hPa 0,0 l/m 1,6 km/h (1 Bft) N 360 0 min 0,000 mm 0,0 UV-I 0 W/m 16,1 C 20,3 C 3,2 km/h (1 Bft) 91,30 %
19.08.2019 00:07 24,3 C 20,3 C 18,3 C 22,8 C 67 % 77 % 1009,9 hPa 0,0 l/m 3,2 km/h (1 Bft) N 360 0 min 0,000 mm 0,0 UV-I 0 W/m 16,1 C 20,3 C 6,4 km/h (2 Bft) 100,00 %
19.08.2019 00:06 24,3 C 20,3 C 18,3 C 22,8 C 67 % 77 % 1009,9 hPa 0,0 l/m 3,2 km/h (1 Bft) N 360 0 min 0,000 mm 0,0 UV-I 0 W/m 16,1 C 20,3 C 6,4 km/h (2 Bft) 86,96 %
19.08.2019 00:05 24,3 C 20,3 C 18,3 C 22,8 C 67 % 77 % 1009,9 hPa 0,0 l/m 4,8 km/h (1 Bft) N 360 0 min 0,000 mm 0,0 UV-I 0 W/m 16,1 C 20,3 C 6,4 km/h (2 Bft) 91,30 %
19.08.2019 00:04 24,3 C 20,3 C 18,3 C 22,8 C 67 % 77 % 1009,9 hPa 0,0 l/m 1,6 km/h (1 Bft) N-NO 22 0 min 0,000 mm 0,0 UV-I 0 W/m 16,1 C 20,3 C 4,8 km/h (1 Bft) 95,65 %
19.08.2019 00:03 24,3 C 20,3 C 18,3 C 22,8 C 67 % 78 % 1009,9 hPa 0,0 l/m 1,6 km/h (1 Bft) N-NO 22 0 min 0,000 mm 0,0 UV-I 0 W/m 16,3 C 20,3 C 3,2 km/h (1 Bft) 95,65 %
19.08.2019 00:02 24,3 C 20,3 C 17,8 C 22,8 C 67 % 77 % 1009,9 hPa 0,0 l/m 3,2 km/h (1 Bft) N-NO 22 0 min 0,000 mm 0,0 UV-I 0 W/m 16,1 C 20,3 C 4,8 km/h (1 Bft) 91,30 %
19.08.2019 00:01 24,3 C 20,3 C 17,8 C 22,8 C 67 % 77 % 1009,9 hPa 0,0 l/m 1,6 km/h (1 Bft) N-NO 22 0 min 0,000 mm 0,0 UV-I 0 W/m 16,1 C 20,3 C 3,2 km/h (1 Bft) 91,30 %
19.08.2019 00:00 24,3 C 20,3 C 17,8 C 22,8 C 67 % 77 % 1009,9 hPa 0,0 l/m 0,0 km/h (0 Bft) O 90 0 min 0,025 mm 0,0 UV-I 0 W/m 16,1 C 20,3 C 1,6 km/h (1 Bft) 95,65 %
_ Min-Zeit 04:37 02:33 00:57 04:07 07:05 05:00 01:00 - 00:00 - - - - - - 06:45 03:29 00:11 01:37
Minimum _ 23,9 C 19,2 C 17,2 C 21,7 C 63 % 66 % 1009,1 hPa - 0,0 km/h (0 Bft) - - - - - - 14,2 C 18,0 C 0,0 km/h (0 Bft) 82,61 %
_ Max-Zeit 00:00 05:02 04:50 00:00 00:10 02:01 07:45 00:00 05:02 - - 00:00 06:00 07:27 07:31 03:44 06:23 05:15 00:07
Maximum _ 24,3 C 22,5 C 21,7 C 22,8 C 68 % 82 % 1017,0 hPa 0,0 l/m 30,6 km/h
W-NW (5 Bft)
- - 0 min 0,076 mm 2,5 UV-I 67 W/m 16,3 C 21,1 C 43,5 km/h
NW (6 Bft)
100,00 %
Durchschnitt _ 24,1 C 20,4 C 18,9 C 22,1 C 66 % 74 % 1012,9 hPa #0,0 l/m 6,0 km/h (2 Bft) W-NW - #0 min. #0,303 mm 2,5 UV-I 33 W/m 15,7 C 19,7 C 9,6 km/h (2 Bft) 94,56 %